| time (UTC) | temp F | wind direction | speed MPH | gust MPH | rain 1hr in | rain 24hr in | rain mn in | humidity % | barometer mb |
| 20260506092932 | 0 | 0.0 | 0.0 | 0.00 | 0.01 | 0.00 | 1000.0 | ||
| 20260506092832 | 0 | 0.0 | 0.0 | 0.00 | 0.01 | 0.00 | 1000.0 | ||
| 20260506092732 | 0 | 0.0 | 0.0 | 0.00 | 0.01 | 0.00 | 1000.1 | ||
| 20260506092633 | 0 | 0.0 | 0.0 | 0.00 | 0.01 | 0.00 | 1000.0 | ||
| 20260506092505 | 0 | 0.0 | 0.0 | 0.00 | 0.01 | 0.00 | 1000.1 | ||
| 20260506092404 | 75 | 247 | 0.0 | 0.0 | 0.00 | 0.01 | 0.00 | 97 | 1000.1 |
| 20260506092306 | 75 | 247 | 0.0 | 0.0 | 0.00 | 0.01 | 0.00 | 97 | 1000.1 |
| 20260506092204 | 75 | 247 | 0.0 | 0.0 | 0.00 | 0.01 | 0.00 | 97 | 1000.1 |
| 20260506092107 | 75 | 247 | 0.0 | 0.0 | 0.00 | 0.01 | 0.00 | 97 | 1000.1 |
| 20260506092003 | 75 | 247 | 0.0 | 0.0 | 0.00 | 0.01 | 0.00 | 97 | 1000.1 |
| 20260506091903 | 75 | 247 | 0.0 | 0.0 | 0.00 | 0.01 | 0.00 | 97 | 1000.1 |
| 20260506091804 | 75 | 247 | 0.0 | 0.0 | 0.00 | 0.01 | 0.00 | 97 | 1000.1 |
| 20260506091703 | 75 | 247 | 0.0 | 0.0 | 0.00 | 0.01 | 0.00 | 97 | 1000.1 |
| 20260506091603 | 75 | 247 | 0.0 | 0.0 | 0.00 | 0.01 | 0.00 | 97 | 1000.1 |
| 20260506091452 | 75 | 247 | 0.0 | 0.0 | 0.00 | 0.01 | 0.00 | 97 | 1000.1 |
| 20260506091351 | 75 | 247 | 0.0 | 0.0 | 0.00 | 0.01 | 0.00 | 97 | 1000.2 |
| 20260506091251 | 75 | 209 | 0.0 | 0.0 | 0.00 | 0.01 | 0.00 | 97 | 1000.1 |
| 20260506091152 | 75 | 209 | 0.0 | 0.0 | 0.00 | 0.01 | 0.00 | 97 | 1000.1 |
| 20260506091051 | 75 | 209 | 0.0 | 0.0 | 0.00 | 0.01 | 0.00 | 97 | 1000.1 |
| 20260506090952 | 75 | 258 | 0.0 | 0.0 | 0.00 | 0.01 | 0.00 | 97 | 1000.1 |
| 20260506090850 | 75 | 258 | 0.0 | 0.0 | 0.00 | 0.01 | 0.00 | 97 | 1000.2 |
| 20260506090751 | 75 | 235 | 0.0 | 0.0 | 0.00 | 0.01 | 0.00 | 97 | 1000.2 |
| 20260506090652 | 75 | 235 | 0.0 | 0.0 | 0.00 | 0.01 | 0.00 | 97 | 1000.2 |
| 20260506090551 | 75 | 233 | 0.0 | 0.0 | 0.00 | 0.01 | 0.00 | 97 | 1000.2 |
| 20260506090451 | 75 | 233 | 0.0 | 0.0 | 0.00 | 0.01 | 0.00 | 97 | 1000.2 |
| 20260506090351 | 75 | 233 | 0.0 | 0.0 | 0.00 | 0.01 | 0.00 | 97 | 1000.2 |
| 20260506090251 | 75 | 233 | 0.0 | 0.0 | 0.00 | 0.01 | 0.00 | 97 | 1000.1 |
| 20260506090151 | 75 | 231 | 0.0 | 0.0 | 0.00 | 0.01 | 0.00 | 97 | 1000.1 |
| 20260506090051 | 75 | 243 | 0.0 | 0.0 | 0.00 | 0.01 | 0.00 | 97 | 1000.1 |
| 20260506085950 | 75 | 243 | 0.0 | 0.0 | 0.00 | 0.01 | 0.00 | 97 | 1000.1 |
| 20260506085851 | 75 | 243 | 0.0 | 0.0 | 0.00 | 0.01 | 0.00 | 97 | 1000.1 |
| 20260506085750 | 75 | 243 | 0.0 | 0.0 | 0.00 | 0.01 | 0.00 | 97 | 1000.1 |
| 20260506085655 | 75 | 243 | 0.0 | 2.0 | 0.00 | 0.01 | 0.00 | 97 | 1000.0 |
| 20260506085550 | 75 | 241 | 0.0 | 2.0 | 0.00 | 0.01 | 0.00 | 97 | 1000.0 |
| 20260506085450 | 75 | 241 | 0.0 | 2.0 | 0.00 | 0.01 | 0.00 | 97 | 1000.0 |
| 20260506085351 | 75 | 288 | 0.0 | 2.0 | 0.00 | 0.01 | 0.00 | 97 | 1000.1 |
| 20260506085250 | 76 | 288 | 0.0 | 2.0 | 0.00 | 0.01 | 0.00 | 97 | 1000.0 |
| 20260506085151 | 76 | 216 | 0.0 | 2.0 | 0.00 | 0.01 | 0.00 | 97 | 1000.1 |
| 20260506085050 | 76 | 216 | 0.0 | 2.0 | 0.00 | 0.01 | 0.00 | 97 | 1000.0 |
| 20260506084952 | 76 | 216 | 0.0 | 2.0 | 0.00 | 0.01 | 0.00 | 97 | 1000.0 |
| 20260506084850 | 76 | 243 | 0.0 | 2.0 | 0.00 | 0.01 | 0.00 | 97 | 1000.0 |
| 20260506084752 | 76 | 183 | 1.0 | 2.0 | 0.00 | 0.01 | 0.00 | 97 | 1000.1 |
| 20260506084650 | 76 | 227 | 1.0 | 2.0 | 0.00 | 0.01 | 0.00 | 97 | 1000.1 |
| 20260506084550 | 76 | 268 | 0.0 | 2.0 | 0.00 | 0.01 | 0.00 | 97 | 1000.0 |
| 20260506084450 | 76 | 283 | 0.0 | 2.0 | 0.00 | 0.01 | 0.00 | 97 | 1000.0 |
| 20260506084350 | 76 | 283 | 0.0 | 2.0 | 0.00 | 0.01 | 0.00 | 97 | 1000.1 |
| 20260506084253 | 76 | 248 | 0.0 | 2.0 | 0.00 | 0.01 | 0.00 | 97 | 1000.0 |
| 20260506084152 | 76 | 226 | 0.0 | 2.0 | 0.00 | 0.01 | 0.00 | 97 | 1000.0 |
| 20260506084058 | 76 | 226 | 0.0 | 2.0 | 0.00 | 0.01 | 0.00 | 96 | 1000.0 |
| 20260506083951 | 76 | 234 | 0.0 | 2.0 | 0.00 | 0.01 | 0.00 | 96 | 1000.0 |
| 20260506083851 | 76 | 299 | 0.0 | 2.0 | 0.00 | 0.01 | 0.00 | 96 | 1000.0 |
| 20260506083751 | 76 | 299 | 0.0 | 2.0 | 0.00 | 0.01 | 0.00 | 96 | 999.9 |
| 20260506083650 | 76 | 254 | 0.0 | 0.0 | 0.00 | 0.01 | 0.00 | 96 | 1000.0 |
| 20260506083552 | 76 | 254 | 0.0 | 0.0 | 0.00 | 0.01 | 0.00 | 96 | 999.9 |
| 20260506083450 | 76 | 254 | 0.0 | 0.0 | 0.00 | 0.01 | 0.00 | 96 | 1000.0 |
| 20260506083352 | 76 | 254 | 0.0 | 0.0 | 0.00 | 0.01 | 0.00 | 96 | 1000.0 |
| 20260506083251 | 76 | 254 | 0.0 | 0.0 | 0.00 | 0.01 | 0.00 | 96 | 1000.1 |
| 20260506083152 | 76 | 254 | 0.0 | 0.0 | 0.00 | 0.01 | 0.00 | 96 | 1000.1 |
| 20260506083051 | 76 | 252 | 0.0 | 0.0 | 0.00 | 0.01 | 0.00 | 96 | 1000.1 |
| 20260506082949 | 76 | 252 | 0.0 | 0.0 | 0.00 | 0.01 | 0.00 | 96 | 1000.3 |
| 20260506082850 | 76 | 199 | 0.0 | 0.0 | 0.00 | 0.01 | 0.00 | 97 | 1000.2 |
| 20260506082751 | 76 | 199 | 0.0 | 1.0 | 0.00 | 0.01 | 0.00 | 97 | 1000.2 |
| 20260506082651 | 76 | 199 | 0.0 | 1.0 | 0.00 | 0.01 | 0.00 | 97 | 1000.2 |
| 20260506082551 | 76 | 162 | 0.0 | 1.0 | 0.00 | 0.01 | 0.00 | 97 | 1000.3 |
| 20260506082451 | 76 | 162 | 0.0 | 1.0 | 0.00 | 0.01 | 0.00 | 97 | 1000.3 |
| 20260506082350 | 76 | 162 | 0.0 | 1.0 | 0.00 | 0.01 | 0.00 | 97 | 1000.2 |
| 20260506082252 | 76 | 192 | 0.0 | 1.0 | 0.00 | 0.01 | 0.00 | 97 | 1000.2 |
| 20260506082153 | 76 | 192 | 0.0 | 1.0 | 0.00 | 0.01 | 0.00 | 97 | 1000.2 |
| 20260506082049 | 76 | 192 | 0.0 | 1.0 | 0.00 | 0.01 | 0.00 | 97 | 1000.2 |
| 20260506081949 | 76 | 192 | 0.0 | 1.0 | 0.00 | 0.01 | 0.00 | 97 | 1000.2 |
| 20260506081851 | 76 | 192 | 0.0 | 1.0 | 0.00 | 0.01 | 0.00 | 97 | 1000.3 |
| 20260506081751 | 76 | 206 | 0.0 | 1.0 | 0.00 | 0.01 | 0.00 | 97 | 1000.3 |
| 20260506081649 | 76 | 206 | 0.0 | 1.0 | 0.00 | 0.01 | 0.00 | 97 | 1000.3 |
| 20260506081551 | 76 | 207 | 0.0 | 1.0 | 0.00 | 0.01 | 0.00 | 96 | 1000.3 |
| 20260506081449 | 76 | 224 | 0.0 | 1.0 | 0.00 | 0.01 | 0.00 | 96 | 1000.3 |
| 20260506081351 | 76 | 240 | 0.0 | 1.0 | 0.00 | 0.01 | 0.00 | 96 | 1000.3 |
| 20260506081249 | 76 | 230 | 0.0 | 2.0 | 0.00 | 0.01 | 0.00 | 96 | 1000.3 |
| 20260506081150 | 76 | 230 | 0.0 | 2.0 | 0.00 | 0.01 | 0.00 | 96 | 1000.3 |
| 20260506081049 | 76 | 230 | 0.0 | 2.0 | 0.00 | 0.01 | 0.00 | 96 | 1000.3 |
| 20260506080951 | 76 | 259 | 0.0 | 2.0 | 0.00 | 0.01 | 0.00 | 96 | 1000.3 |
| 20260506080851 | 76 | 259 | 0.0 | 2.0 | 0.00 | 0.01 | 0.00 | 96 | 1000.2 |
| 20260506080749 | 76 | 176 | 0.0 | 2.0 | 0.00 | 0.01 | 0.00 | 96 | 1000.3 |
| 20260506080651 | 76 | 175 | 0.0 | 2.0 | 0.00 | 0.01 | 0.00 | 96 | 1000.3 |
| 20260506080549 | 76 | 199 | 0.0 | 2.0 | 0.00 | 0.01 | 0.00 | 96 | 1000.4 |
| 20260506080449 | 76 | 199 | 0.0 | 2.0 | 0.00 | 0.01 | 0.00 | 96 | 1000.3 |
| 20260506080350 | 76 | 193 | 0.0 | 2.0 | 0.00 | 0.01 | 0.00 | 96 | 1000.4 |
| 20260506080251 | 76 | 241 | 0.0 | 1.0 | 0.00 | 0.01 | 0.00 | 96 | 1000.4 |
| 20260506080149 | 76 | 241 | 0.0 | 1.0 | 0.00 | 0.01 | 0.00 | 96 | 1000.5 |
| 20260506073450 | 76 | 278 | 0.0 | 0.0 | 0.00 | 0.01 | 0.00 | 96 | 1001.0 |
| 20260506073350 | 76 | 278 | 0.0 | 0.0 | 0.00 | 0.01 | 0.00 | 96 | 1001.0 |
| 20260506073249 | 76 | 278 | 0.0 | 0.0 | 0.00 | 0.01 | 0.00 | 96 | 1000.9 |
| 20260506073150 | 76 | 286 | 0.0 | 0.0 | 0.00 | 0.01 | 0.00 | 96 | 1000.9 |
| 20260506073048 | 76 | 286 | 0.0 | 2.0 | 0.00 | 0.01 | 0.00 | 96 | 1001.0 |
| 20260506072949 | 76 | 288 | 0.0 | 2.0 | 0.00 | 0.01 | 0.00 | 96 | 1000.9 |
| 20260506072849 | 76 | 288 | 0.0 | 2.0 | 0.00 | 0.01 | 0.00 | 96 | 1000.9 |
| 20260506072749 | 76 | 219 | 0.0 | 2.0 | 0.00 | 0.01 | 0.00 | 96 | 1000.9 |
| 20260506072650 | 76 | 228 | 0.0 | 2.0 | 0.00 | 0.01 | 0.00 | 96 | 1001.0 |
| 20260506072548 | 76 | 233 | 0.0 | 2.0 | 0.00 | 0.01 | 0.00 | 96 | 1001.0 |
| 20260506072449 | 76 | 230 | 0.0 | 2.0 | 0.00 | 0.01 | 0.00 | 96 | 1000.9 |
| 20260506072349 | 76 | 219 | 0.0 | 2.0 | 0.00 | 0.01 | 0.00 | 96 | 1001.0 |
| 20260506072248 | 76 | 217 | 0.0 | 2.0 | 0.00 | 0.01 | 0.00 | 96 | 1001.1 |
| 20260506072148 | 76 | 217 | 0.0 | 2.0 | 0.00 | 0.01 | 0.00 | 96 | 1001.0 |
| 20260506072050 | 76 | 244 | 0.0 | 1.0 | 0.00 | 0.01 | 0.00 | 96 | 1001.1 |
| 20260506071950 | 76 | 244 | 0.0 | 1.0 | 0.00 | 0.01 | 0.00 | 96 | 1001.1 |
| 20260506071848 | 76 | 244 | 0.0 | 1.0 | 0.00 | 0.01 | 0.00 | 96 | 1001.1 |
| 20260506071748 | 76 | 244 | 0.0 | 1.0 | 0.00 | 0.01 | 0.00 | 96 | 1001.1 |
| 20260506071647 | 76 | 244 | 0.0 | 1.0 | 0.00 | 0.01 | 0.00 | 96 | 1001.1 |
| 20260506071551 | 76 | 279 | 0.0 | 1.0 | 0.00 | 0.01 | 0.00 | 96 | 1001.1 |
| 20260506071448 | 76 | 279 | 0.0 | 1.0 | 0.00 | 0.01 | 0.00 | 96 | 1001.1 |
| 20260506071350 | 76 | 279 | 0.0 | 1.0 | 0.00 | 0.01 | 0.00 | 96 | 1001.2 |
| 20260506071250 | 76 | 279 | 0.0 | 1.0 | 0.00 | 0.01 | 0.00 | 96 | 1001.2 |
| 20260506071149 | 76 | 241 | 0.0 | 0.0 | 0.00 | 0.01 | 0.00 | 96 | 1001.3 |
| 20260506071051 | 76 | 241 | 0.0 | 0.0 | 0.00 | 0.01 | 0.00 | 96 | 1001.2 |
| 20260506070949 | 76 | 241 | 0.0 | 0.0 | 0.00 | 0.01 | 0.00 | 96 | 1001.2 |
| 20260506070850 | 76 | 241 | 0.0 | 0.0 | 0.00 | 0.01 | 0.00 | 96 | 1001.2 |
| 20260506070748 | 76 | 241 | 0.0 | 0.0 | 0.00 | 0.01 | 0.00 | 96 | 1001.3 |
| 20260506070648 | 76 | 241 | 0.0 | 0.0 | 0.00 | 0.01 | 0.00 | 96 | 1001.4 |
| 20260506070549 | 76 | 241 | 0.0 | 0.0 | 0.00 | 0.01 | 0.00 | 96 | 1001.4 |
| 20260506070448 | 76 | 240 | 0.0 | 0.0 | 0.00 | 0.01 | 0.00 | 96 | 1001.4 |
| 20260506070340 | 76 | 240 | 0.0 | 0.0 | 0.00 | 0.01 | 0.00 | 96 | 1001.3 |
| 20260506070236 | 76 | 240 | 0.0 | 0.0 | 0.00 | 0.01 | 0.00 | 96 | 1001.3 |
| 20260506070131 | 76 | 240 | 0.0 | 0.0 | 0.00 | 0.01 | 0.00 | 96 | 1001.3 |
| 20260506062502 | 76 | 216 | 0.0 | 0.0 | 0.00 | 0.01 | 0.00 | 95 | 1001.4 |
| 20260506062401 | 76 | 216 | 0.0 | 0.0 | 0.00 | 0.01 | 0.00 | 95 | 1001.4 |
| 20260506062305 | 76 | 216 | 0.0 | 0.0 | 0.00 | 0.01 | 0.00 | 95 | 1001.4 |
| 20260506062202 | 76 | 220 | 0.0 | 0.0 | 0.00 | 0.01 | 0.00 | 95 | 1001.4 |
| 20260506062103 | 76 | 220 | 0.0 | 0.0 | 0.00 | 0.01 | 0.00 | 95 | 1001.4 |
| 20260506062006 | 76 | 254 | 0.0 | 0.0 | 0.00 | 0.01 | 0.00 | 95 | 1001.4 |
| 20260506061902 | 76 | 244 | 0.0 | 0.0 | 0.00 | 0.01 | 0.00 | 95 | 1001.4 |
| 20260506061802 | 76 | 244 | 0.0 | 0.0 | 0.00 | 0.01 | 0.00 | 95 | 1001.4 |
| 20260506061703 | 76 | 219 | 0.0 | 0.0 | 0.00 | 0.01 | 0.00 | 95 | 1001.4 |
| 20260506061603 | 76 | 219 | 0.0 | 0.0 | 0.00 | 0.01 | 0.00 | 95 | 1001.4 |
| 20260506061502 | 76 | 220 | 0.0 | 0.0 | 0.00 | 0.01 | 0.00 | 95 | 1001.4 |
| 20260506061402 | 76 | 220 | 0.0 | 0.0 | 0.00 | 0.01 | 0.00 | 95 | 1001.4 |
| 20260506061304 | 76 | 220 | 0.0 | 0.0 | 0.00 | 0.01 | 0.00 | 95 | 1001.4 |
| 20260506061206 | 76 | 85 | 0.0 | 0.0 | 0.00 | 0.01 | 0.00 | 95 | 1001.4 |
| 20260506061103 | 76 | 237 | 0.0 | 3.0 | 0.00 | 0.01 | 0.00 | 95 | 1001.4 |
| 20260506061004 | 76 | 237 | 0.0 | 3.0 | 0.00 | 0.01 | 0.00 | 95 | 1001.4 |
| 20260506060904 | 76 | 237 | 0.0 | 3.0 | 0.00 | 0.01 | 0.00 | 95 | 1001.3 |
| 20260506060803 | 76 | 237 | 0.0 | 3.0 | 0.00 | 0.01 | 0.00 | 95 | 1001.3 |
| 20260506060702 | 76 | 235 | 0.0 | 3.0 | 0.00 | 0.01 | 0.00 | 95 | 1001.4 |
| 20260506060603 | 76 | 235 | 0.0 | 3.0 | 0.00 | 0.01 | 0.00 | 95 | 1001.3 |
| 20260506060504 | 76 | 235 | 0.0 | 3.0 | 0.00 | 0.01 | 0.00 | 95 | 1001.3 |
| 20260506060403 | 76 | 241 | 0.0 | 3.0 | 0.00 | 0.01 | 0.00 | 95 | 1001.3 |
| 20260506060303 | 76 | 241 | 1.0 | 3.0 | 0.00 | 0.01 | 0.00 | 95 | 1001.4 |
| 20260506060204 | 76 | 241 | 1.0 | 3.0 | 0.00 | 0.01 | 0.00 | 95 | 1001.4 |
| 20260506060105 | 76 | 169 | 0.0 | 1.0 | 0.00 | 0.01 | 0.00 | 95 | 1001.4 |
| 20260506051404 | 77 | 82 | 0.0 | 2.0 | 0.00 | 0.01 | 0.00 | 94 | 1001.4 |
| 20260506051302 | 77 | 151 | 0.0 | 2.0 | 0.00 | 0.01 | 0.00 | 94 | 1001.3 |
| 20260506051203 | 77 | 151 | 0.0 | 2.0 | 0.00 | 0.01 | 0.00 | 94 | 1001.3 |
| 20260506051103 | 77 | 62 | 0.0 | 2.0 | 0.00 | 0.01 | 0.00 | 94 | 1001.3 |
| 20260506051002 | 77 | 62 | 0.0 | 2.0 | 0.00 | 0.01 | 0.00 | 94 | 1001.2 |
| 20260506050903 | 77 | 344 | 0.0 | 2.0 | 0.00 | 0.01 | 0.00 | 94 | 1001.2 |
| 20260506050802 | 77 | 334 | 0.0 | 2.0 | 0.00 | 0.01 | 0.00 | 94 | 1001.2 |
| 20260506050702 | 77 | 333 | 0.0 | 2.0 | 0.00 | 0.01 | 0.00 | 94 | 1001.2 |
| 20260506050603 | 77 | 333 | 0.0 | 2.0 | 0.00 | 0.01 | 0.00 | 94 | 1001.2 |
| 20260506050504 | 77 | 334 | 0.0 | 2.0 | 0.00 | 0.01 | 0.00 | 94 | 1001.2 |
| 20260506050403 | 77 | 334 | 0.0 | 2.0 | 0.00 | 0.01 | 0.00 | 94 | 1001.1 |
| 20260506050302 | 77 | 334 | 0.0 | 2.0 | 0.00 | 0.01 | 0.00 | 94 | 1001.1 |
| 20260506050202 | 77 | 244 | 0.0 | 2.0 | 0.00 | 0.01 | 0.00 | 94 | 1001.1 |
| 20260506050108 | 77 | 238 | 0.0 | 2.0 | 0.00 | 0.01 | 0.00 | 94 | 1001.1 |
| 20260506045103 | 77 | 182 | 1.0 | 3.0 | 0.00 | 0.01 | 0.00 | 94 | 1001.2 |
| 20260506045001 | 77 | 182 | 0.0 | 3.0 | 0.00 | 0.01 | 0.00 | 94 | 1001.2 |
| 20260506044847 | 77 | 274 | 0.0 | 2.0 | 0.00 | 0.01 | 0.00 | 94 | 1001.2 |
| 20260506044748 | 77 | 274 | 0.0 | 2.0 | 0.00 | 0.01 | 0.00 | 94 | 1001.2 |
| 20260506044646 | 77 | 279 | 0.0 | 2.0 | 0.00 | 0.01 | 0.00 | 94 | 1001.2 |
| 20260506044546 | 77 | 281 | 0.0 | 2.0 | 0.00 | 0.01 | 0.00 | 94 | 1001.2 |
| 20260506044446 | 77 | 358 | 0.0 | 2.0 | 0.00 | 0.01 | 0.00 | 94 | 1001.3 |
| 20260506044346 | 77 | 278 | 0.0 | 1.0 | 0.00 | 0.01 | 0.00 | 94 | 1001.2 |
| 20260506044246 | 77 | 278 | 0.0 | 1.0 | 0.00 | 0.01 | 0.00 | 94 | 1001.2 |
| 20260506044145 | 77 | 278 | 0.0 | 1.0 | 0.00 | 0.01 | 0.00 | 94 | 1001.2 |
| 20260506044046 | 77 | 278 | 0.0 | 2.0 | 0.00 | 0.01 | 0.00 | 94 | 1001.2 |
| 20260506043946 | 77 | 276 | 0.0 | 2.0 | 0.00 | 0.01 | 0.00 | 94 | 1001.1 |
| 20260506043846 | 77 | 282 | 0.0 | 2.0 | 0.00 | 0.01 | 0.00 | 94 | 1001.1 |
| 20260506043744 | 77 | 282 | 0.0 | 2.0 | 0.00 | 0.01 | 0.00 | 94 | 1001.1 |
| 20260506043645 | 77 | 292 | 0.0 | 3.0 | 0.00 | 0.01 | 0.00 | 94 | 1001.1 |
| 20260506043544 | 77 | 334 | 0.0 | 3.0 | 0.00 | 0.01 | 0.00 | 94 | 1001.2 |
| 20260506043446 | 77 | 334 | 0.0 | 3.0 | 0.00 | 0.01 | 0.00 | 94 | 1001.1 |
| 20260506043347 | 77 | 334 | 0.0 | 3.0 | 0.00 | 0.01 | 0.00 | 94 | 1001.1 |
| 20260506043246 | 77 | 334 | 0.0 | 3.0 | 0.00 | 0.01 | 0.00 | 94 | 1001.0 |
| 20260506043144 | 77 | 357 | 0.0 | 3.0 | 0.00 | 0.01 | 0.00 | 94 | 1001.1 |
| 20260506043047 | 77 | 283 | 0.0 | 3.0 | 0.00 | 0.01 | 0.00 | 94 | 1001.0 |
| 20260506042946 | 77 | 286 | 0.0 | 3.0 | 0.00 | 0.01 | 0.00 | 94 | 1001.0 |
| 20260506042844 | 77 | 286 | 0.0 | 3.0 | 0.01 | 0.01 | 0.00 | 94 | 1001.0 |
| 20260506042745 | 77 | 286 | 0.0 | 3.0 | 0.01 | 0.01 | 0.00 | 94 | 1001.0 |
| 20260506042651 | 77 | 302 | 0.0 | 2.0 | 0.01 | 0.01 | 0.00 | 94 | 1001.0 |
| 20260506042544 | 77 | 271 | 0.0 | 2.0 | 0.01 | 0.01 | 0.00 | 93 | 1001.1 |
| 20260506042445 | 77 | 254 | 0.0 | 2.0 | 0.01 | 0.01 | 0.00 | 93 | 1001.0 |
| 20260506042343 | 77 | 245 | 0.0 | 2.0 | 0.01 | 0.01 | 0.00 | 93 | 1001.0 |
| 20260506042236 | 77 | 245 | 0.0 | 2.0 | 0.01 | 0.01 | 0.00 | 93 | 1001.0 |
| 20260506042137 | 77 | 274 | 0.0 | 2.0 | 0.01 | 0.01 | 0.00 | 93 | 1001.1 |
| 20260506042032 | 77 | 281 | 0.0 | 2.0 | 0.01 | 0.01 | 0.00 | 93 | 1001.0 |
| 20260506041930 | 77 | 104 | 0.0 | 2.0 | 0.01 | 0.01 | 0.00 | 93 | 1001.1 |
| 20260506041829 | 77 | 104 | 0.0 | 2.0 | 0.01 | 0.01 | 0.00 | 93 | 1001.0 |
| 20260506041721 | 77 | 104 | 0.0 | 2.0 | 0.01 | 0.01 | 0.00 | 93 | 1001.0 |
| 20260506041622 | 77 | 161 | 0.0 | 2.0 | 0.01 | 0.01 | 0.00 | 93 | 1001.0 |
| 20260506041515 | 77 | 120 | 0.0 | 2.0 | 0.01 | 0.01 | 0.00 | 93 | 1001.0 |
| 20260506041416 | 77 | 117 | 0.0 | 2.0 | 0.01 | 0.01 | 0.00 | 93 | 1001.0 |
| 20260506041311 | 77 | 114 | 0.0 | 2.0 | 0.01 | 0.01 | 0.00 | 93 | 1001.0 |
| 20260506041210 | 77 | 175 | 0.0 | 4.0 | 0.01 | 0.01 | 0.00 | 93 | 1001.1 |
| 20260506041110 | 77 | 175 | 0.0 | 4.0 | 0.01 | 0.01 | 0.00 | 93 | 1001.1 |
| 20260506041004 | 77 | 175 | 0.0 | 4.0 | 0.01 | 0.01 | 0.00 | 93 | 1001.1 |
| 20260506040904 | 77 | 175 | 0.0 | 4.0 | 0.01 | 0.01 | 0.00 | 93 | 1001.1 |
| 20260506040804 | 77 | 240 | 0.0 | 4.0 | 0.01 | 0.01 | 0.00 | 93 | 1001.1 |
| 20260506040703 | 77 | 241 | 0.0 | 4.0 | 0.01 | 0.01 | 0.00 | 93 | 1001.2 |
| 20260506040605 | 77 | 241 | 0.0 | 4.0 | 0.01 | 0.01 | 0.00 | 93 | 1001.2 |
| 20260506040503 | 77 | 241 | 0.0 | 4.0 | 0.01 | 0.01 | 0.00 | 93 | 1001.2 |
| 20260506040403 | 77 | 241 | 1.0 | 4.0 | 0.01 | 0.01 | 0.00 | 93 | 1001.2 |
| 20260506040303 | 77 | 210 | 1.0 | 4.0 | 0.01 | 0.01 | 0.00 | 93 | 1001.2 |
| 20260506040203 | 77 | 248 | 0.0 | 1.0 | 0.01 | 0.01 | 0.00 | 93 | 1001.2 |
| 20260506040004 | 77 | 247 | 0.0 | 0.0 | 0.01 | 0.00 | 0.00 | 93 | 1001.2 |
| 20260506035902 | 77 | 272 | 0.0 | 0.0 | 0.01 | 0.00 | 0.01 | 93 | 1001.2 |
| 20260506035803 | 77 | 272 | 0.0 | 0.0 | 0.01 | 0.00 | 0.01 | 93 | 1001.2 |
| 20260506035705 | 77 | 271 | 0.0 | 0.0 | 0.01 | 0.00 | 0.01 | 93 | 1001.2 |
| 20260506035604 | 77 | 286 | 0.0 | 1.0 | 0.01 | 0.00 | 0.01 | 93 | 1001.2 |
| 20260506035504 | 77 | 286 | 0.0 | 1.0 | 0.01 | 0.00 | 0.01 | 93 | 1001.2 |
| 20260506035404 | 77 | 285 | 0.0 | 1.0 | 0.01 | 0.00 | 0.01 | 93 | 1001.1 |
| 20260506035305 | 78 | 285 | 0.0 | 2.0 | 0.01 | 0.00 | 0.01 | 93 | 1001.2 |
| 20260506035201 | 78 | 285 | 0.0 | 2.0 | 0.01 | 0.00 | 0.01 | 93 | 1001.0 |
| 20260506035104 | 78 | 285 | 0.0 | 2.0 | 0.01 | 0.00 | 0.01 | 93 | 1001.0 |
| 20260506035002 | 78 | 285 | 0.0 | 4.0 | 0.01 | 0.00 | 0.01 | 93 | 1001.0 |
| 20260506034902 | 78 | 285 | 0.0 | 4.0 | 0.01 | 0.00 | 0.01 | 93 | 1001.0 |
| 20260506034804 | 78 | 285 | 0.0 | 4.0 | 0.01 | 0.00 | 0.01 | 93 | 1001.0 |
| 20260506034704 | 78 | 286 | 0.0 | 4.0 | 0.01 | 0.00 | 0.01 | 93 | 1000.9 |
| 20260506034604 | 78 | 293 | 0.0 | 4.0 | 0.01 | 0.00 | 0.01 | 93 | 1000.9 |
| 20260506034504 | 78 | 293 | 0.0 | 4.0 | 0.01 | 0.00 | 0.01 | 93 | 1000.9 |
| 20260506034403 | 78 | 290 | 0.0 | 4.0 | 0.01 | 0.00 | 0.01 | 93 | 1000.9 |
| 20260506034302 | 78 | 137 | 0.0 | 4.0 | 0.01 | 0.00 | 0.01 | 93 | 1000.9 |
| 20260506034205 | 78 | 137 | 1.0 | 4.0 | 0.01 | 0.00 | 0.01 | 93 | 1000.9 |
| 20260506034102 | 78 | 137 | 1.0 | 4.0 | 0.01 | 0.00 | 0.01 | 92 | 1000.8 |
| 20260506034004 | 78 | 279 | 0.0 | 2.0 | 0.01 | 0.00 | 0.01 | 92 | 1000.9 |
| 20260506033903 | 78 | 279 | 0.0 | 2.0 | 0.01 | 0.00 | 0.01 | 92 | 1000.8 |
| 20260506033803 | 78 | 193 | 0.0 | 1.0 | 0.01 | 0.00 | 0.01 | 92 | 1000.9 |
| 20260506033704 | 78 | 193 | 0.0 | 1.0 | 0.01 | 0.00 | 0.01 | 92 | 1000.9 |
| 20260506033604 | 78 | 193 | 0.0 | 1.0 | 0.01 | 0.00 | 0.01 | 92 | 1000.8 |
| 20260506033504 | 78 | 190 | 0.0 | 1.0 | 0.01 | 0.00 | 0.01 | 92 | 1000.9 |
| 20260506033403 | 78 | 190 | 0.0 | 1.0 | 0.01 | 0.00 | 0.01 | 92 | 1000.9 |
| 20260506033303 | 78 | 276 | 0.0 | 1.0 | 0.01 | 0.00 | 0.01 | 92 | 1000.9 |
| 20260506033203 | 78 | 276 | 0.0 | 1.0 | 0.01 | 0.00 | 0.01 | 92 | 1000.9 |
| 20260506033102 | 78 | 258 | 0.0 | 1.0 | 0.01 | 0.00 | 0.01 | 92 | 1000.9 |
| 20260506033006 | 78 | 258 | 0.0 | 1.0 | 0.01 | 0.00 | 0.00 | 92 | 1001.0 |
| 20260506032904 | 78 | 258 | 0.0 | 1.0 | 0.00 | 0.00 | 0.00 | 92 | 1000.8 |
| 20260506032804 | 78 | 258 | 0.0 | 1.0 | 0.00 | 0.00 | 0.00 | 92 | 1000.9 |
| 20260506032702 | 78 | 214 | 0.0 | 1.0 | 0.00 | 0.00 | 0.00 | 92 | 1000.9 |
| 20260506032603 | 78 | 214 | 0.0 | 1.0 | 0.00 | 0.00 | 0.00 | 92 | 1000.8 |
| 20260506032502 | 78 | 214 | 0.0 | 1.0 | 0.00 | 0.00 | 0.00 | 92 | 1000.8 |
| 20260506032404 | 78 | 202 | 0.0 | 1.0 | 0.00 | 0.00 | 0.00 | 92 | 1000.8 |
| 20260506032305 | 78 | 202 | 0.0 | 1.0 | 0.00 | 0.00 | 0.00 | 92 | 1000.8 |
| 20260506032204 | 78 | 228 | 0.0 | 1.0 | 0.00 | 0.00 | 0.00 | 92 | 1000.8 |
| 20260506032103 | 78 | 228 | 0.0 | 1.0 | 0.00 | 0.00 | 0.00 | 92 | 1000.7 |
| 20260506032004 | 78 | 228 | 0.0 | 1.0 | 0.00 | 0.00 | 0.00 | 91 | 1000.7 |
| 20260506031903 | 78 | 230 | 0.0 | 1.0 | 0.00 | 0.00 | 0.00 | 91 | 1000.7 |
| 20260506031804 | 78 | 230 | 0.0 | 1.0 | 0.00 | 0.00 | 0.00 | 91 | 1000.7 |
| 20260506031703 | 78 | 230 | 0.0 | 0.0 | 0.00 | 0.00 | 0.00 | 91 | 1000.8 |
| 20260506031609 | 78 | 230 | 0.0 | 0.0 | 0.00 | 0.00 | 0.00 | 92 | 1000.7 |
| 20260506031505 | 78 | 230 | 0.0 | 0.0 | 0.00 | 0.00 | 0.00 | 92 | 1000.8 |
| 20260506031404 | 78 | 230 | 0.0 | 0.0 | 0.00 | 0.00 | 0.00 | 91 | 1000.7 |
| 20260506031302 | 78 | 230 | 0.0 | 0.0 | 0.00 | 0.00 | 0.00 | 91 | 1000.7 |
| 20260506031202 | 78 | 230 | 0.0 | 1.0 | 0.00 | 0.00 | 0.00 | 91 | 1000.7 |
| 20260506031103 | 78 | 230 | 0.0 | 1.0 | 0.00 | 0.00 | 0.00 | 91 | 1000.7 |
| 20260506031003 | 78 | 235 | 0.0 | 1.0 | 0.00 | 0.00 | 0.00 | 91 | 1000.7 |
| 20260506030903 | 78 | 235 | 0.0 | 1.0 | 0.00 | 0.00 | 0.00 | 91 | 1000.7 |
| 20260506030802 | 78 | 235 | 0.0 | 1.0 | 0.00 | 0.00 | 0.00 | 91 | 1000.7 |
| 20260506030702 | 78 | 171 | 0.0 | 1.0 | 0.00 | 0.00 | 0.00 | 91 | 1000.7 |
| 20260506030602 | 78 | 169 | 0.0 | 1.0 | 0.00 | 0.00 | 0.00 | 91 | 1000.7 |
| 20260506030505 | 78 | 169 | 0.0 | 1.0 | 0.00 | 0.00 | 0.00 | 91 | 1000.7 |
| 20260506030404 | 78 | 169 | 0.0 | 1.0 | 0.00 | 0.00 | 0.00 | 91 | 1000.7 |
| 20260506030302 | 78 | 169 | 0.0 | 1.0 | 0.00 | 0.00 | 0.00 | 91 | 1000.7 |
| 20260506030203 | 78 | 169 | 0.0 | 0.0 | 0.00 | 0.00 | 0.00 | 91 | 1000.7 |
| 20260506030103 | 78 | 282 | 0.0 | 0.0 | 0.00 | 0.00 | 0.00 | 91 | 1000.8 |
| 20260506030004 | 78 | 282 | 0.0 | 0.0 | 0.00 | 0.00 | 0.00 | 91 | 1000.7 |
| 20260506025903 | 78 | 282 | 0.0 | 0.0 | 0.00 | 0.00 | 0.00 | 91 | 1000.7 |
| 20260506025803 | 78 | 282 | 0.0 | 0.0 | 0.00 | 0.00 | 0.00 | 91 | 1000.7 |
| 20260506025702 | 78 | 282 | 0.0 | 0.0 | 0.00 | 0.00 | 0.00 | 91 | 1000.7 |
| 20260506025605 | 78 | 282 | 0.0 | 0.0 | 0.00 | 0.00 | 0.00 | 91 | 1000.6 |
| 20260506025504 | 78 | 282 | 0.0 | 0.0 | 0.00 | 0.00 | 0.00 | 91 | 1000.6 |
| 20260506025403 | 78 | 283 | 0.0 | 0.0 | 0.00 | 0.00 | 0.00 | 91 | 1000.6 |
| 20260506025305 | 78 | 283 | 0.0 | 1.0 | 0.00 | 0.00 | 0.00 | 91 | 1000.6 |
| 20260506025202 | 78 | 283 | 0.0 | 1.0 | 0.00 | 0.00 | 0.00 | 91 | 1000.6 |
| 20260506025102 | 78 | 283 | 0.0 | 1.0 | 0.00 | 0.00 | 0.00 | 91 | 1000.5 |
| 20260506025004 | 78 | 283 | 0.0 | 2.0 | 0.00 | 0.00 | 0.00 | 91 | 1000.5 |
| 20260506024904 | 78 | 283 | 0.0 | 2.0 | 0.00 | 0.00 | 0.00 | 91 | 1000.5 |
| 20260506024803 | 78 | 283 | 0.0 | 2.0 | 0.00 | 0.00 | 0.00 | 91 | 1000.5 |
| 20260506024705 | 78 | 283 | 0.0 | 2.0 | 0.00 | 0.00 | 0.00 | 91 | 1000.5 |
| 20260506024602 | 78 | 283 | 0.0 | 2.0 | 0.00 | 0.00 | 0.00 | 91 | 1000.5 |
| 20260506024503 | 78 | 283 | 0.0 | 2.0 | 0.00 | 0.00 | 0.00 | 91 | 1000.4 |
| 20260506024402 | 78 | 283 | 0.0 | 2.0 | 0.00 | 0.00 | 0.00 | 91 | 1000.4 |
| 20260506024303 | 78 | 282 | 0.0 | 2.0 | 0.00 | 0.00 | 0.00 | 91 | 1000.4 |
| 20260506024203 | 78 | 282 | 0.0 | 2.0 | 0.00 | 0.00 | 0.00 | 91 | 1000.4 |
| 20260506024058 | 78 | 282 | 0.0 | 2.0 | 0.00 | 0.00 | 0.00 | 91 | 1000.4 |
| 20260506023956 | 78 | 255 | 0.0 | 0.0 | 0.00 | 0.00 | 0.00 | 91 | 1000.3 |
| 20260506023852 | 78 | 255 | 0.0 | 0.0 | 0.00 | 0.00 | 0.00 | 91 | 1000.4 |
| 20260506023744 | 78 | 255 | 0.0 | 0.0 | 0.00 | 0.00 | 0.00 | 91 | 1000.3 |
| 20260506023644 | 78 | 255 | 0.0 | 0.0 | 0.00 | 0.00 | 0.00 | 91 | 1000.3 |
| 20260506023543 | 78 | 255 | 0.0 | 0.0 | 0.00 | 0.00 | 0.00 | 91 | 1000.3 |
| 20260506023441 | 78 | 255 | 0.0 | 1.0 | 0.00 | 0.00 | 0.00 | 91 | 1000.2 |
| 20260506023343 | 78 | 255 | 0.0 | 1.0 | 0.00 | 0.00 | 0.00 | 90 | 1000.2 |
| 20260506023243 | 78 | 255 | 0.0 | 1.0 | 0.00 | 0.00 | 0.00 | 91 | 1000.2 |
| 20260506023144 | 78 | 255 | 0.0 | 1.0 | 0.00 | 0.00 | 0.00 | 90 | 1000.2 |
| 20260506023042 | 78 | 255 | 0.0 | 1.0 | 0.00 | 0.00 | 0.00 | 90 | 1000.2 |
| 20260506022942 | 78 | 255 | 0.0 | 1.0 | 0.00 | 0.00 | 0.00 | 90 | 1000.2 |
| 20260506022844 | 78 | 255 | 0.0 | 1.0 | 0.00 | 0.00 | 0.00 | 90 | 1000.1 |
| 20260506022744 | 78 | 255 | 0.0 | 1.0 | 0.00 | 0.00 | 0.00 | 90 | 1000.1 |
| 20260506022643 | 78 | 258 | 0.0 | 1.0 | 0.00 | 0.00 | 0.00 | 90 | 1000.1 |
| 20260506022543 | 78 | 258 | 0.0 | 1.0 | 0.00 | 0.00 | 0.00 | 90 | 1000.0 |
| 20260506022442 | 78 | 258 | 0.0 | 0.0 | 0.00 | 0.00 | 0.00 | 90 | 1000.1 |
| 20260506022342 | 78 | 258 | 0.0 | 0.0 | 0.00 | 0.00 | 0.00 | 90 | 1000.1 |
| 20260506022242 | 78 | 258 | 0.0 | 0.0 | 0.00 | 0.00 | 0.00 | 90 | 1000.0 |
| 20260506022144 | 78 | 257 | 0.0 | 0.0 | 0.00 | 0.00 | 0.00 | 90 | 1000.0 |
| 20260506022042 | 78 | 258 | 0.0 | 0.0 | 0.00 | 0.00 | 0.00 | 90 | 1000.0 |
| 20260506021942 | 78 | 258 | 0.0 | 0.0 | 0.00 | 0.00 | 0.00 | 90 | 999.9 |
| 20260506021842 | 78 | 258 | 0.0 | 0.0 | 0.00 | 0.00 | 0.00 | 90 | 1000.0 |
| 20260506021742 | 78 | 258 | 0.0 | 0.0 | 0.00 | 0.00 | 0.00 | 90 | 999.9 |
| 20260506021641 | 78 | 258 | 0.0 | 1.0 | 0.00 | 0.00 | 0.00 | 90 | 1000.0 |
| 20260506021543 | 78 | 258 | 0.0 | 1.0 | 0.00 | 0.00 | 0.00 | 90 | 999.9 |
| 20260506021441 | 78 | 258 | 0.0 | 1.0 | 0.00 | 0.00 | 0.00 | 90 | 999.9 |
| 20260506021341 | 78 | 258 | 0.0 | 1.0 | 0.00 | 0.00 | 0.00 | 90 | 999.9 |
| 20260506021242 | 78 | 258 | 0.0 | 1.0 | 0.00 | 0.00 | 0.00 | 90 | 999.9 |
| 20260506021144 | 78 | 258 | 0.0 | 1.0 | 0.00 | 0.00 | 0.00 | 90 | 999.8 |
| 20260506021046 | 78 | 258 | 0.0 | 1.0 | 0.00 | 0.00 | 0.00 | 90 | 999.8 |
| 20260506020944 | 78 | 268 | 0.0 | 1.0 | 0.00 | 0.00 | 0.00 | 90 | 999.8 |
| 20260506020843 | 78 | 268 | 0.0 | 1.0 | 0.00 | 0.00 | 0.00 | 90 | 999.8 |
| 20260506020741 | 78 | 204 | 0.0 | 1.0 | 0.00 | 0.00 | 0.00 | 90 | 999.8 |
| 20260506020643 | 78 | 182 | 0.0 | 1.0 | 0.00 | 0.00 | 0.00 | 90 | 999.8 |
| 20260506020541 | 78 | 182 | 0.0 | 1.0 | 0.00 | 0.00 | 0.00 | 90 | 999.8 |
| 20260506020442 | 78 | 182 | 0.0 | 3.0 | 0.00 | 0.00 | 0.00 | 90 | 999.7 |
| 20260506020342 | 78 | 182 | 0.0 | 3.0 | 0.00 | 0.00 | 0.00 | 90 | 999.8 |
| 20260506020243 | 78 | 183 | 0.0 | 3.0 | 0.00 | 0.00 | 0.00 | 90 | 999.8 |
| 20260506020141 | 78 | 183 | 0.0 | 3.0 | 0.00 | 0.00 | 0.00 | 90 | 999.7 |
| 20260506020043 | 78 | 183 | 0.0 | 3.0 | 0.00 | 0.00 | 0.00 | 90 | 999.7 |
| 20260506015938 | 78 | 192 | 0.0 | 3.0 | 0.00 | 0.00 | 0.00 | 90 | 999.8 |
| 20260506015836 | 78 | 193 | 0.0 | 3.0 | 0.00 | 0.00 | 0.00 | 90 | 999.7 |
| 20260506015733 | 78 | 193 | 0.0 | 3.0 | 0.00 | 0.00 | 0.00 | 90 | 999.7 |
| 20260506015633 | 79 | 238 | 0.0 | 3.0 | 0.00 | 0.00 | 0.00 | 90 | 999.6 |
| 20260506015532 | 79 | 238 | 0.0 | 3.0 | 0.00 | 0.00 | 0.00 | 90 | 999.6 |
| 20260506015432 | 79 | 223 | 0.0 | 2.0 | 0.00 | 0.00 | 0.00 | 90 | 999.6 |
| 20260506015331 | 79 | 223 | 0.0 | 2.0 | 0.00 | 0.00 | 0.00 | 90 | 999.5 |
| 20260506015232 | 79 | 228 | 0.0 | 2.0 | 0.00 | 0.00 | 0.00 | 90 | 999.5 |
| 20260506015131 | 79 | 185 | 0.0 | 2.0 | 0.00 | 0.00 | 0.00 | 90 | 999.5 |
| 20260506015033 | 79 | 185 | 0.0 | 2.0 | 0.00 | 0.00 | 0.00 | 90 | 999.5 |
| 20260506014931 | 79 | 185 | 0.0 | 2.0 | 0.00 | 0.00 | 0.00 | 90 | 999.5 |
| 20260506014831 | 79 | 185 | 0.0 | 2.0 | 0.00 | 0.00 | 0.00 | 90 | 999.4 |
| 20260506014731 | 79 | 185 | 0.0 | 2.0 | 0.00 | 0.00 | 0.00 | 90 | 999.4 |
| 20260506014630 | 79 | 188 | 0.0 | 2.0 | 0.00 | 0.00 | 0.00 | 90 | 999.4 |
| 20260506014519 | 79 | 188 | 0.0 | 2.0 | 0.00 | 0.00 | 0.00 | 89 | 999.4 |
| 20260506014418 | 79 | 188 | 0.0 | 2.0 | 0.00 | 0.00 | 0.00 | 89 | 999.4 |
| 20260506014311 | 79 | 202 | 0.0 | 1.0 | 0.00 | 0.00 | 0.00 | 89 | 999.4 |
| 20260506014209 | 79 | 202 | 0.0 | 1.0 | 0.00 | 0.00 | 0.00 | 89 | 999.4 |
| 20260506014103 | 79 | 210 | 0.0 | 1.0 | 0.00 | 0.00 | 0.00 | 89 | 999.3 |
| 20260506014004 | 79 | 285 | 0.0 | 1.0 | 0.00 | 0.00 | 0.00 | 89 | 999.3 |
| 20260506013903 | 79 | 285 | 0.0 | 1.0 | 0.00 | 0.00 | 0.00 | 89 | 999.2 |
| 20260506013803 | 79 | 285 | 0.0 | 2.0 | 0.00 | 0.00 | 0.00 | 89 | 999.3 |
| 20260506013702 | 79 | 286 | 0.0 | 2.0 | 0.00 | 0.00 | 0.00 | 89 | 999.2 |
| 20260506013604 | 79 | 286 | 0.0 | 2.0 | 0.00 | 0.00 | 0.00 | 89 | 999.3 |
| 20260506013504 | 79 | 288 | 0.0 | 2.0 | 0.00 | 0.00 | 0.00 | 89 | 999.3 |
| 20260506013403 | 79 | 289 | 0.0 | 2.0 | 0.00 | 0.00 | 0.00 | 89 | 999.3 |
| 20260506013303 | 79 | 289 | 0.0 | 2.0 | 0.00 | 0.00 | 0.00 | 89 | 999.2 |
| 20260506013204 | 79 | 152 | 0.0 | 2.0 | 0.00 | 0.00 | 0.00 | 89 | 999.2 |
| 20260506013102 | 79 | 148 | 0.0 | 2.0 | 0.00 | 0.00 | 0.00 | 89 | 999.2 |
| 20260506013004 | 79 | 148 | 0.0 | 2.0 | 0.00 | 0.00 | 0.00 | 89 | 999.2 |
| 20260506012904 | 79 | 147 | 0.0 | 2.0 | 0.00 | 0.00 | 0.00 | 89 | 999.2 |
| 20260506012802 | 79 | 107 | 0.0 | 1.0 | 0.00 | 0.00 | 0.00 | 89 | 999.1 |
| 20260506012704 | 79 | 107 | 0.0 | 1.0 | 0.00 | 0.00 | 0.00 | 89 | 999.2 |
| 20260506012609 | 79 | 107 | 0.0 | 1.0 | 0.00 | 0.00 | 0.00 | 89 | 999.2 |
| 20260506012505 | 79 | 188 | 0.0 | 0.0 | 0.00 | 0.00 | 0.00 | 89 | 999.2 |
| 20260506012403 | 79 | 203 | 0.0 | 0.0 | 0.00 | 0.00 | 0.00 | 88 | 999.2 |
| 20260506012307 | 79 | 203 | 0.0 | 0.0 | 0.00 | 0.00 | 0.00 | 88 | 999.2 |
| 20260506012204 | 79 | 203 | 0.0 | 0.0 | 0.00 | 0.00 | 0.00 | 88 | 999.1 |
| 20260506012103 | 80 | 203 | 0.0 | 0.0 | 0.00 | 0.00 | 0.00 | 88 | 999.2 |
| 20260506012004 | 80 | 203 | 0.0 | 0.0 | 0.00 | 0.00 | 0.00 | 88 | 999.2 |
| 20260506011902 | 80 | 203 | 0.0 | 0.0 | 0.00 | 0.00 | 0.00 | 88 | 999.2 |
| 20260506011803 | 80 | 207 | 0.0 | 0.0 | 0.00 | 0.00 | 0.00 | 88 | 999.1 |
| 20260506011704 | 80 | 207 | 0.0 | 0.0 | 0.00 | 0.00 | 0.00 | 88 | 999.1 |
| 20260506011606 | 80 | 207 | 0.0 | 0.0 | 0.00 | 0.00 | 0.00 | 88 | 999.2 |
| 20260506011504 | 80 | 207 | 0.0 | 0.0 | 0.00 | 0.00 | 0.00 | 88 | 999.2 |
| 20260506011404 | 80 | 207 | 0.0 | 0.0 | 0.00 | 0.00 | 0.00 | 88 | 999.1 |
| 20260506011304 | 80 | 207 | 0.0 | 0.0 | 0.00 | 0.00 | 0.00 | 88 | 999.1 |
| 20260506011201 | 80 | 207 | 0.0 | 0.0 | 0.00 | 0.00 | 0.00 | 88 | 999.1 |
| 20260506011100 | 80 | 206 | 0.0 | 0.0 | 0.00 | 0.00 | 0.00 | 88 | 999.1 |
| 20260506010957 | 80 | 206 | 0.0 | 1.0 | 0.00 | 0.00 | 0.00 | 88 | 999.1 |
| 20260506010851 | 80 | 206 | 0.0 | 1.0 | 0.00 | 0.00 | 0.00 | 88 | 999.1 |
| 20260506010753 | 80 | 206 | 0.0 | 1.0 | 0.00 | 0.00 | 0.00 | 88 | 999.0 |
| 20260506010651 | 80 | 206 | 0.0 | 1.0 | 0.00 | 0.00 | 0.00 | 88 | 999.0 |
| 20260506010543 | 80 | 206 | 0.0 | 1.0 | 0.00 | 0.00 | 0.00 | 88 | 999.0 |
| 20260506010441 | 80 | 206 | 0.0 | 1.0 | 0.00 | 0.00 | 0.00 | 88 | 998.9 |
| 20260506010341 | 80 | 206 | 0.0 | 1.0 | 0.00 | 0.00 | 0.00 | 88 | 998.9 |
| 20260506010241 | 80 | 206 | 0.0 | 2.0 | 0.00 | 0.00 | 0.00 | 88 | 998.9 |
| 20260506010140 | 80 | 206 | 0.0 | 2.0 | 0.00 | 0.00 | 0.00 | 88 | 999.0 |
| 20260506010041 | 80 | 128 | 0.0 | 2.0 | 0.00 | 0.00 | 0.00 | 88 | 999.0 |
| 20260506005941 | 80 | 128 | 0.0 | 2.0 | 0.00 | 0.00 | 0.00 | 88 | 999.0 |
| 20260506005840 | 80 | 128 | 0.0 | 3.0 | 0.00 | 0.00 | 0.00 | 88 | 999.0 |
| 20260506005740 | 80 | 128 | 0.0 | 3.0 | 0.00 | 0.00 | 0.00 | 88 | 998.9 |
| 20260506005639 | 80 | 127 | 0.0 | 3.0 | 0.00 | 0.00 | 0.00 | 88 | 998.9 |
| 20260506005539 | 80 | 127 | 0.0 | 3.0 | 0.00 | 0.00 | 0.00 | 88 | 998.9 |
| 20260506005441 | 80 | 195 | 1.0 | 4.0 | 0.00 | 0.00 | 0.00 | 88 | 998.8 |
| 20260506005340 | 80 | 195 | 0.0 | 4.0 | 0.00 | 0.00 | 0.00 | 88 | 998.8 |
| 20260506005240 | 80 | 195 | 0.0 | 4.0 | 0.00 | 0.00 | 0.00 | 88 | 998.8 |
| 20260506005140 | 80 | 298 | 0.0 | 4.0 | 0.00 | 0.00 | 0.00 | 88 | 998.8 |
| 20260506005040 | 80 | 248 | 1.0 | 4.0 | 0.00 | 0.00 | 0.00 | 88 | 998.7 |
| 20260506004941 | 80 | 248 | 1.0 | 4.0 | 0.00 | 0.00 | 0.00 | 88 | 998.8 |
| 20260506004835 | 80 | 155 | 0.0 | 4.0 | 0.00 | 0.00 | 0.00 | 88 | 998.7 |
| 20260506004730 | 80 | 171 | 0.0 | 4.0 | 0.00 | 0.00 | 0.00 | 88 | 998.7 |
| 20260506004631 | 80 | 159 | 0.0 | 4.0 | 0.00 | 0.00 | 0.00 | 88 | 998.7 |
| 20260506004534 | 80 | 168 | 0.0 | 3.0 | 0.00 | 0.00 | 0.00 | 88 | 998.7 |
| 20260506004433 | 80 | 168 | 0.0 | 3.0 | 0.00 | 0.00 | 0.00 | 88 | 998.8 |
| 20260506004328 | 81 | 178 | 0.0 | 3.0 | 0.00 | 0.00 | 0.00 | 88 | 998.8 |
| 20260506004218 | 81 | 111 | 0.0 | 1.0 | 0.00 | 0.00 | 0.00 | 88 | 998.8 |
| 20260506004113 | 81 | 110 | 0.0 | 1.0 | 0.00 | 0.00 | 0.00 | 88 | 998.7 |
| 20260506004010 | 81 | 110 | 0.0 | 1.0 | 0.00 | 0.00 | 0.00 | 88 | 998.7 |
| 20260506003903 | 81 | 107 | 0.0 | 1.0 | 0.00 | 0.00 | 0.00 | 88 | 998.8 |
| 20260506003803 | 81 | 83 | 0.0 | 1.0 | 0.00 | 0.00 | 0.00 | 88 | 998.7 |
| 20260506003702 | 81 | 204 | 0.0 | 1.0 | 0.00 | 0.00 | 0.00 | 88 | 998.8 |
| 20260506003604 | 81 | 204 | 0.0 | 1.0 | 0.00 | 0.00 | 0.00 | 88 | 998.7 |
| 20260506003502 | 81 | 228 | 0.0 | 1.0 | 0.00 | 0.00 | 0.00 | 88 | 998.8 |
| 20260506003404 | 81 | 228 | 0.0 | 1.0 | 0.00 | 0.00 | 0.00 | 88 | 998.7 |
| 20260506003303 | 81 | 228 | 0.0 | 1.0 | 0.00 | 0.00 | 0.00 | 87 | 998.7 |
| 20260506003202 | 81 | 227 | 0.0 | 1.0 | 0.00 | 0.00 | 0.00 | 87 | 998.7 |
| 20260506003103 | 81 | 227 | 0.0 | 1.0 | 0.00 | 0.00 | 0.00 | 87 | 998.8 |
| 20260506003003 | 81 | 224 | 0.0 | 1.0 | 0.00 | 0.00 | 0.00 | 87 | 998.8 |
| 20260506002903 | 81 | 214 | 0.0 | 1.0 | 0.00 | 0.00 | 0.00 | 87 | 998.8 |
| 20260506002802 | 81 | 207 | 0.0 | 1.0 | 0.00 | 0.00 | 0.00 | 87 | 998.8 |
| 20260506002702 | 81 | 207 | 0.0 | 2.0 | 0.00 | 0.00 | 0.00 | 87 | 998.7 |
| 20260506002602 | 81 | 207 | 0.0 | 2.0 | 0.00 | 0.00 | 0.00 | 87 | 998.7 |
| 20260506002503 | 81 | 203 | 0.0 | 2.0 | 0.00 | 0.00 | 0.00 | 87 | 998.8 |
| 20260506002403 | 81 | 268 | 0.0 | 2.0 | 0.00 | 0.00 | 0.00 | 87 | 998.7 |
| 20260506002305 | 81 | 268 | 0.0 | 2.0 | 0.00 | 0.00 | 0.00 | 87 | 998.7 |
| 20260506002203 | 81 | 268 | 0.0 | 2.0 | 0.00 | 0.00 | 0.00 | 87 | 998.8 |
| 20260506002102 | 81 | 268 | 0.0 | 2.0 | 0.00 | 0.00 | 0.00 | 87 | 998.8 |
| 20260506002004 | 81 | 268 | 0.0 | 2.0 | 0.00 | 0.00 | 0.00 | 87 | 998.8 |
| 20260506001903 | 81 | 268 | 0.0 | 2.0 | 0.00 | 0.00 | 0.00 | 87 | 998.8 |
| 20260506001803 | 81 | 268 | 0.0 | 2.0 | 0.00 | 0.00 | 0.00 | 87 | 998.7 |
| 20260506001701 | 81 | 247 | 0.0 | 2.0 | 0.00 | 0.00 | 0.00 | 87 | 998.8 |
| 20260506001609 | 81 | 250 | 0.0 | 2.0 | 0.00 | 0.00 | 0.00 | 87 | 998.7 |
| 20260506001504 | 81 | 250 | 0.0 | 2.0 | 0.00 | 0.00 | 0.00 | 87 | 998.8 |
| 20260506001403 | 81 | 176 | 0.0 | 2.0 | 0.00 | 0.00 | 0.00 | 87 | 998.7 |
| 20260506001304 | 81 | 176 | 0.0 | 2.0 | 0.00 | 0.00 | 0.00 | 87 | 998.7 |
| 20260506001202 | 81 | 243 | 0.0 | 2.0 | 0.00 | 0.00 | 0.00 | 87 | 998.7 |
| 20260506001105 | 81 | 230 | 0.0 | 2.0 | 0.00 | 0.00 | 0.00 | 87 | 998.7 |
| 20260506001004 | 81 | 213 | 0.0 | 2.0 | 0.00 | 0.00 | 0.00 | 87 | 998.7 |
| 20260506000904 | 81 | 212 | 0.0 | 2.0 | 0.00 | 0.00 | 0.00 | 87 | 998.8 |
| 20260506000803 | 81 | 272 | 0.0 | 2.0 | 0.00 | 0.00 | 0.00 | 87 | 998.8 |
| 20260506000703 | 81 | 207 | 0.0 | 2.0 | 0.00 | 0.00 | 0.00 | 87 | 998.8 |
| 20260506000607 | 82 | 176 | 0.0 | 1.0 | 0.00 | 0.00 | 0.00 | 87 | 998.9 |
| 20260506000501 | 82 | 190 | 0.0 | 1.0 | 0.00 | 0.00 | 0.00 | 87 | 998.8 |
| 20260506000403 | 82 | 179 | 0.0 | 1.0 | 0.00 | 0.00 | 0.00 | 87 | 998.9 |
| 20260506000302 | 82 | 272 | 0.0 | 1.0 | 0.00 | 0.00 | 0.00 | 86 | 998.8 |
| 20260506000205 | 82 | 272 | 0.0 | 1.0 | 0.00 | 0.00 | 0.00 | 86 | 998.9 |
| 20260506000003 | 82 | 204 | 0.0 | 4.0 | 0.00 | 0.00 | 0.00 | 86 | 998.8 |
| 20260505235902 | 82 | 203 | 0.0 | 4.0 | 0.00 | 0.00 | 0.00 | 86 | 998.8 |
| 20260505235802 | 82 | 83 | 0.0 | 4.0 | 0.00 | 0.00 | 0.00 | 86 | 998.8 |
| 20260505235703 | 82 | 83 | 0.0 | 4.0 | 0.00 | 0.00 | 0.00 | 86 | 998.9 |
| 20260505235604 | 82 | 78 | 0.0 | 4.0 | 0.00 | 0.00 | 0.00 | 86 | 998.8 |
| 20260505235504 | 82 | 118 | 0.0 | 4.0 | 0.00 | 0.00 | 0.00 | 86 | 998.6 |
| 20260505235404 | 82 | 85 | 0.0 | 4.0 | 0.00 | 0.00 | 0.00 | 86 | 998.7 |
| 20260505235305 | 82 | 134 | 1.0 | 4.0 | 0.00 | 0.00 | 0.00 | 86 | 998.6 |
| 20260505235204 | 82 | 161 | 1.0 | 4.0 | 0.00 | 0.00 | 0.00 | 86 | 998.6 |
| 20260505235104 | 82 | 233 | 0.0 | 2.0 | 0.00 | 0.00 | 0.00 | 86 | 998.6 |
| 20260505235003 | 82 | 168 | 0.0 | 2.0 | 0.00 | 0.00 | 0.00 | 86 | 998.6 |
| 20260505234902 | 82 | 168 | 0.0 | 2.0 | 0.00 | 0.00 | 0.00 | 86 | 998.5 |
| 20260505234802 | 82 | 138 | 0.0 | 1.0 | 0.00 | 0.00 | 0.00 | 86 | 998.5 |
| 20260505234702 | 82 | 166 | 0.0 | 1.0 | 0.00 | 0.00 | 0.00 | 86 | 998.6 |
| 20260505234603 | 82 | 166 | 0.0 | 1.0 | 0.00 | 0.00 | 0.00 | 86 | 998.5 |
| 20260505234503 | 82 | 166 | 0.0 | 1.0 | 0.00 | 0.00 | 0.00 | 86 | 998.6 |
| 20260505234403 | 82 | 166 | 0.0 | 1.0 | 0.00 | 0.00 | 0.00 | 86 | 998.6 |
| 20260505234303 | 82 | 166 | 0.0 | 1.0 | 0.00 | 0.00 | 0.00 | 86 | 998.7 |
| 20260505234209 | 82 | 166 | 0.0 | 1.0 | 0.00 | 0.00 | 0.00 | 86 | 998.7 |
| 20260505234059 | 82 | 166 | 0.0 | 1.0 | 0.00 | 0.00 | 0.00 | 86 | 998.7 |
| 20260505233957 | 82 | 195 | 0.0 | 1.0 | 0.00 | 0.00 | 0.00 | 86 | 998.7 |
| 20260505233853 | 82 | 195 | 0.0 | 1.0 | 0.00 | 0.00 | 0.00 | 86 | 998.7 |
| 20260505233749 | 82 | 195 | 0.0 | 2.0 | 0.00 | 0.00 | 0.00 | 86 | 998.6 |
| 20260505233639 | 82 | 192 | 0.0 | 4.0 | 0.00 | 0.00 | 0.00 | 86 | 998.6 |
| 20260505233540 | 82 | 193 | 0.0 | 4.0 | 0.00 | 0.00 | 0.00 | 86 | 998.7 |
| 20260505233438 | 82 | 193 | 0.0 | 4.0 | 0.00 | 0.00 | 0.00 | 85 | 998.6 |
| 20260505233339 | 82 | 193 | 0.0 | 4.0 | 0.00 | 0.00 | 0.00 | 85 | 998.6 |
| 20260505233237 | 82 | 193 | 0.0 | 4.0 | 0.00 | 0.00 | 0.00 | 85 | 998.7 |
| 20260505233138 | 82 | 193 | 0.0 | 4.0 | 0.00 | 0.00 | 0.00 | 86 | 998.7 |
| 20260505233038 | 82 | 223 | 0.0 | 4.0 | 0.00 | 0.00 | 0.00 | 86 | 998.7 |
| 20260505232938 | 82 | 140 | 0.0 | 4.0 | 0.00 | 0.00 | 0.00 | 86 | 998.7 |
| 20260505232837 | 82 | 141 | 1.0 | 4.0 | 0.00 | 0.00 | 0.00 | 86 | 998.6 |
| 20260505232738 | 82 | 39 | 1.0 | 4.0 | 0.00 | 0.00 | 0.00 | 86 | 998.5 |
| 20260505232653 | 82 | 355 | 0.0 | 1.0 | 0.00 | 0.00 | 0.00 | 86 | 998.6 |
| 20260505232538 | 82 | 199 | 0.0 | 1.0 | 0.00 | 0.00 | 0.00 | 86 | 998.5 |
| 20260505232437 | 82 | 199 | 0.0 | 1.0 | 0.00 | 0.00 | 0.00 | 86 | 998.5 |
| 20260505232339 | 82 | 199 | 0.0 | 2.0 | 0.00 | 0.00 | 0.00 | 86 | 998.5 |
| 20260505232238 | 82 | 199 | 0.0 | 4.0 | 0.00 | 0.00 | 0.00 | 86 | 998.5 |
| 20260505232140 | 82 | 199 | 0.0 | 4.0 | 0.00 | 0.00 | 0.00 | 86 | 998.4 |
| 20260505232037 | 82 | 210 | 0.0 | 4.0 | 0.00 | 0.00 | 0.00 | 86 | 998.5 |
| 20260505231937 | 83 | 209 | 0.0 | 4.0 | 0.00 | 0.00 | 0.00 | 86 | 998.4 |
| 20260505231840 | 83 | 182 | 0.0 | 4.0 | 0.00 | 0.00 | 0.00 | 85 | 998.5 |
| 20260505231740 | 83 | 186 | 0.0 | 4.0 | 0.00 | 0.00 | 0.00 | 85 | 998.4 |
| 20260505231642 | 83 | 186 | 0.0 | 4.0 | 0.00 | 0.00 | 0.00 | 85 | 998.4 |
| 20260505231539 | 83 | 186 | 1.0 | 4.0 | 0.00 | 0.00 | 0.00 | 85 | 998.4 |
| 20260505231439 | 83 | 274 | 1.0 | 4.0 | 0.00 | 0.00 | 0.00 | 85 | 998.4 |
| 20260505231337 | 83 | 238 | 1.0 | 4.0 | 0.00 | 0.00 | 0.00 | 85 | 998.4 |
| 20260505231238 | 83 | 230 | 0.0 | 3.0 | 0.00 | 0.00 | 0.00 | 85 | 998.5 |
| 20260505231138 | 83 | 234 | 0.0 | 3.0 | 0.00 | 0.00 | 0.00 | 85 | 998.4 |
| 20260505231038 | 83 | 271 | 0.0 | 3.0 | 0.00 | 0.00 | 0.00 | 85 | 998.4 |
| 20260505230937 | 83 | 305 | 0.0 | 3.0 | 0.00 | 0.00 | 0.00 | 85 | 998.4 |
| 20260505230838 | 83 | 309 | 1.0 | 3.0 | 0.00 | 0.00 | 0.00 | 85 | 998.4 |
| 20260505230739 | 83 | 131 | 1.0 | 3.0 | 0.00 | 0.00 | 0.00 | 85 | 998.4 |
| 20260505230637 | 83 | 197 | 1.0 | 3.0 | 0.00 | 0.00 | 0.00 | 85 | 998.4 |
| 20260505230538 | 83 | 86 | 0.0 | 3.0 | 0.00 | 0.00 | 0.00 | 85 | 998.5 |
| 20260505230436 | 83 | 78 | 0.0 | 3.0 | 0.00 | 0.00 | 0.00 | 85 | 998.4 |
| 20260505230338 | 83 | 73 | 0.0 | 3.0 | 0.00 | 0.00 | 0.00 | 85 | 998.5 |
| 20260505230239 | 83 | 141 | 0.0 | 3.0 | 0.00 | 0.00 | 0.00 | 85 | 998.5 |
| 20260505230139 | 83 | 66 | 0.0 | 3.0 | 0.00 | 0.00 | 0.00 | 85 | 998.4 |
| 20260505230040 | 83 | 207 | 0.0 | 3.0 | 0.00 | 0.00 | 0.00 | 85 | 998.6 |
| 20260505225938 | 83 | 210 | 0.0 | 3.0 | 0.00 | 0.00 | 0.00 | 85 | 998.5 |
| 20260505225838 | 83 | 210 | 0.0 | 3.0 | 0.00 | 0.00 | 0.00 | 85 | 998.6 |
| 20260505225737 | 83 | 210 | 0.0 | 3.0 | 0.00 | 0.00 | 0.00 | 85 | 998.5 |
| 20260505225638 | 83 | 210 | 0.0 | 3.0 | 0.00 | 0.00 | 0.00 | 85 | 998.5 |
| 20260505225539 | 83 | 148 | 0.0 | 4.0 | 0.00 | 0.00 | 0.00 | 85 | 998.6 |
| 20260505225438 | 83 | 148 | 0.0 | 4.0 | 0.00 | 0.00 | 0.00 | 85 | 998.6 |
| 20260505225338 | 83 | 148 | 0.0 | 4.0 | 0.00 | 0.00 | 0.00 | 85 | 998.5 |
| 20260505225238 | 83 | 237 | 0.0 | 4.0 | 0.00 | 0.00 | 0.00 | 85 | 998.6 |
| 20260505225138 | 83 | 237 | 0.0 | 4.0 | 0.00 | 0.00 | 0.00 | 85 | 998.7 |
| 20260505225042 | 83 | 157 | 0.0 | 4.0 | 0.00 | 0.00 | 0.00 | 85 | 998.7 |
| 20260505224937 | 83 | 157 | 0.0 | 4.0 | 0.00 | 0.00 | 0.00 | 85 | 998.8 |
| 20260505224838 | 83 | 155 | 0.0 | 4.0 | 0.00 | 0.00 | 0.00 | 85 | 998.7 |
| 20260505224738 | 83 | 155 | 1.0 | 4.0 | 0.00 | 0.00 | 0.00 | 85 | 998.7 |
| 20260505224637 | 83 | 190 | 1.0 | 4.0 | 0.00 | 0.00 | 0.00 | 85 | 998.7 |
| 20260505224543 | 83 | 343 | 0.0 | 3.0 | 0.00 | 0.00 | 0.00 | 85 | 998.6 |
| 20260505224438 | 83 | 175 | 0.0 | 3.0 | 0.00 | 0.00 | 0.00 | 85 | 998.6 |
| 20260505224338 | 83 | 175 | 0.0 | 3.0 | 0.00 | 0.00 | 0.00 | 85 | 998.6 |
| 20260505224238 | 83 | 172 | 0.0 | 3.0 | 0.00 | 0.00 | 0.00 | 85 | 998.6 |
| 20260505224138 | 83 | 192 | 0.0 | 2.0 | 0.00 | 0.00 | 0.00 | 85 | 998.6 |
| 20260505224037 | 83 | 195 | 0.0 | 2.0 | 0.00 | 0.00 | 0.00 | 85 | 998.5 |
| 20260505223939 | 83 | 245 | 0.0 | 2.0 | 0.00 | 0.00 | 0.00 | 85 | 998.5 |
| 20260505223838 | 83 | 245 | 0.0 | 2.0 | 0.00 | 0.00 | 0.00 | 85 | 998.6 |
| 20260505223737 | 83 | 206 | 1.0 | 2.0 | 0.00 | 0.00 | 0.00 | 85 | 998.5 |
| 20260505223637 | 83 | 327 | 0.0 | 2.0 | 0.00 | 0.00 | 0.00 | 85 | 998.5 |
| 20260505223537 | 83 | 238 | 0.0 | 2.0 | 0.00 | 0.00 | 0.00 | 84 | 998.6 |
| 20260505223436 | 83 | 248 | 0.0 | 2.0 | 0.00 | 0.00 | 0.00 | 84 | 998.6 |
| 20260505223337 | 83 | 248 | 0.0 | 2.0 | 0.00 | 0.00 | 0.00 | 84 | 998.6 |
| 20260505223237 | 83 | 237 | 0.0 | 2.0 | 0.00 | 0.00 | 0.00 | 84 | 998.6 |
| 20260505223138 | 83 | 237 | 0.0 | 2.0 | 0.00 | 0.00 | 0.00 | 84 | 998.5 |
| 20260505223039 | 83 | 264 | 0.0 | 3.0 | 0.00 | 0.00 | 0.00 | 84 | 998.5 |
| 20260505222932 | 83 | 264 | 0.0 | 3.0 | 0.00 | 0.00 | 0.00 | 84 | 998.6 |
| 20260505222831 | 83 | 292 | 0.0 | 3.0 | 0.00 | 0.00 | 0.00 | 84 | 998.5 |
| 20260505222733 | 83 | 292 | 0.0 | 3.0 | 0.00 | 0.00 | 0.00 | 84 | 998.6 |
| 20260505222633 | 83 | 217 | 0.0 | 3.0 | 0.00 | 0.00 | 0.00 | 84 | 998.6 |
| 20260505222527 | 83 | 179 | 0.0 | 4.0 | 0.00 | 0.00 | 0.00 | 84 | 998.4 |
| 20260505222427 | 83 | 252 | 0.0 | 4.0 | 0.00 | 0.00 | 0.00 | 84 | 998.5 |
| 20260505222318 | 84 | 113 | 1.0 | 4.0 | 0.00 | 0.00 | 0.00 | 84 | 998.5 |
| 20260505222218 | 84 | 189 | 1.0 | 4.0 | 0.00 | 0.00 | 0.00 | 84 | 998.6 |
| 20260505222105 | 84 | 133 | 0.0 | 4.0 | 0.00 | 0.00 | 0.00 | 84 | 998.7 |
| 20260505222005 | 84 | 351 | 0.0 | 4.0 | 0.00 | 0.00 | 0.00 | 84 | 998.6 |
| 20260505221903 | 84 | 223 | 0.0 | 4.0 | 0.00 | 0.00 | 0.00 | 84 | 998.6 |
| 20260505221802 | 84 | 186 | 0.0 | 4.0 | 0.00 | 0.00 | 0.00 | 84 | 998.7 |
| 20260505221702 | 84 | 185 | 0.0 | 4.0 | 0.00 | 0.00 | 0.00 | 84 | 998.6 |
| 20260505221604 | 84 | 276 | 0.0 | 1.0 | 0.00 | 0.00 | 0.00 | 84 | 998.7 |
| 20260505221501 | 84 | 286 | 0.0 | 1.0 | 0.00 | 0.00 | 0.00 | 84 | 998.7 |
| 20260505221358 | 84 | 245 | 0.0 | 1.0 | 0.00 | 0.00 | 0.00 | 84 | 998.7 |
| 20260505221253 | 84 | 221 | 0.0 | 1.0 | 0.00 | 0.00 | 0.00 | 85 | 998.7 |
| 20260505221158 | 84 | 223 | 0.0 | 1.0 | 0.00 | 0.00 | 0.00 | 85 | 998.7 |
| 20260505221044 | 84 | 233 | 0.0 | 1.0 | 0.00 | 0.00 | 0.00 | 84 | 998.8 |
| 20260505220942 | 84 | 233 | 0.0 | 1.0 | 0.00 | 0.00 | 0.00 | 84 | 998.7 |
| 20260505220840 | 84 | 224 | 0.0 | 2.0 | 0.00 | 0.00 | 0.00 | 84 | 998.7 |
| 20260505220738 | 84 | 217 | 0.0 | 2.0 | 0.00 | 0.00 | 0.00 | 84 | 998.6 |
| 20260505220640 | 84 | 220 | 0.0 | 2.0 | 0.00 | 0.00 | 0.00 | 84 | 998.7 |
| 20260505220537 | 84 | 237 | 0.0 | 2.0 | 0.00 | 0.00 | 0.00 | 84 | 998.7 |
| 20260505220436 | 84 | 237 | 0.0 | 2.0 | 0.00 | 0.00 | 0.00 | 84 | 998.7 |
| 20260505220338 | 84 | 235 | 0.0 | 2.0 | 0.00 | 0.00 | 0.00 | 84 | 998.7 |
| 20260505220237 | 84 | 235 | 0.0 | 2.0 | 0.00 | 0.00 | 0.00 | 84 | 998.7 |
| 20260505220136 | 84 | 237 | 0.0 | 2.0 | 0.00 | 0.00 | 0.00 | 84 | 998.6 |
| 20260505220036 | 84 | 235 | 0.0 | 2.0 | 0.00 | 0.00 | 0.00 | 84 | 998.7 |
| 20260505215935 | 84 | 224 | 0.0 | 5.0 | 0.00 | 0.00 | 0.00 | 84 | 998.8 |
| 20260505215837 | 84 | 190 | 1.0 | 5.0 | 0.00 | 0.00 | 0.00 | 84 | 998.8 |
| 20260505215736 | 84 | 188 | 1.0 | 5.0 | 0.00 | 0.00 | 0.00 | 84 | 998.8 |
| 20260505215637 | 84 | 209 | 0.0 | 5.0 | 0.00 | 0.00 | 0.00 | 84 | 998.8 |
| 20260505215535 | 84 | 188 | 0.0 | 5.0 | 0.00 | 0.00 | 0.00 | 84 | 998.7 |
| 20260505215436 | 84 | 285 | 1.0 | 5.0 | 0.00 | 0.00 | 0.00 | 85 | 998.8 |
| 20260505215336 | 84 | 240 | 1.0 | 5.0 | 0.00 | 0.00 | 0.00 | 85 | 998.8 |
| 20260505215233 | 84 | 151 | 1.0 | 5.0 | 0.00 | 0.00 | 0.00 | 85 | 998.8 |
| 20260505215133 | 84 | 203 | 1.0 | 5.0 | 0.00 | 0.00 | 0.00 | 85 | 998.8 |
| 20260505215023 | 84 | 135 | 1.0 | 5.0 | 0.00 | 0.00 | 0.00 | 85 | 998.8 |
| 20260505214916 | 84 | 97 | 1.0 | 3.0 | 0.00 | 0.00 | 0.00 | 85 | 998.8 |
| 20260505214805 | 84 | 166 | 0.0 | 3.0 | 0.00 | 0.00 | 0.00 | 85 | 998.9 |
| 20260505214703 | 84 | 214 | 0.0 | 1.0 | 0.00 | 0.00 | 0.00 | 85 | 998.9 |
| 20260505214615 | 84 | 214 | 0.0 | 4.0 | 0.00 | 0.00 | 0.00 | 85 | 998.9 |
| 20260505214505 | 84 | 214 | 0.0 | 4.0 | 0.00 | 0.00 | 0.00 | 85 | 998.9 |
| 20260505214403 | 84 | 216 | 0.0 | 4.0 | 0.00 | 0.00 | 0.00 | 85 | 999.0 |
| 20260505214302 | 84 | 216 | 0.0 | 4.0 | 0.00 | 0.00 | 0.00 | 85 | 998.9 |
| 20260505214203 | 84 | 216 | 0.0 | 4.0 | 0.00 | 0.00 | 0.00 | 85 | 999.0 |
| 20260505214108 | 84 | 216 | 0.0 | 4.0 | 0.00 | 0.00 | 0.00 | 84 | 998.9 |
| 20260505214003 | 84 | 227 | 0.0 | 4.0 | 0.00 | 0.00 | 0.00 | 84 | 999.0 |
| 20260505213903 | 84 | 230 | 0.0 | 4.0 | 0.00 | 0.00 | 0.00 | 84 | 999.0 |
| 20260505213803 | 84 | 183 | 1.0 | 4.0 | 0.00 | 0.00 | 0.00 | 84 | 999.1 |
| 20260505213703 | 84 | 183 | 1.0 | 4.0 | 0.00 | 0.00 | 0.00 | 84 | 999.1 |
| 20260505213603 | 84 | 330 | 0.0 | 4.0 | 0.00 | 0.00 | 0.00 | 84 | 999.0 |
| 20260505213502 | 84 | 330 | 0.0 | 4.0 | 0.00 | 0.00 | 0.00 | 84 | 999.1 |
| 20260505213403 | 84 | 329 | 0.0 | 4.0 | 0.00 | 0.00 | 0.00 | 84 | 999.1 |
| 20260505213304 | 84 | 329 | 0.0 | 4.0 | 0.00 | 0.00 | 0.00 | 84 | 999.2 |
| 20260505213204 | 84 | 329 | 1.0 | 4.0 | 0.00 | 0.00 | 0.00 | 83 | 999.2 |
| 20260505213102 | 84 | 330 | 1.0 | 4.0 | 0.00 | 0.00 | 0.00 | 83 | 999.2 |
| 20260505213004 | 84 | 250 | 0.0 | 3.0 | 0.00 | 0.00 | 0.00 | 83 | 999.1 |
| 20260505212904 | 84 | 262 | 0.0 | 3.0 | 0.00 | 0.00 | 0.00 | 83 | 999.2 |
| 20260505212802 | 84 | 264 | 0.0 | 3.0 | 0.00 | 0.00 | 0.00 | 83 | 999.2 |
| 20260505212703 | 84 | 250 | 0.0 | 3.0 | 0.00 | 0.00 | 0.00 | 83 | 999.2 |
| 20260505212604 | 84 | 261 | 0.0 | 3.0 | 0.00 | 0.00 | 0.00 | 84 | 999.2 |
| 20260505212436 | 84 | 285 | 1.0 | 3.0 | 0.00 | 0.00 | 0.00 | 84 | 999.3 |
| 20260505212334 | 84 | 228 | 1.0 | 3.0 | 0.00 | 0.00 | 0.00 | 84 | 999.3 |
| 20260505212234 | 84 | 203 | 0.0 | 3.0 | 0.00 | 0.00 | 0.00 | 84 | 999.3 |
| 20260505212136 | 84 | 204 | 0.0 | 3.0 | 0.00 | 0.00 | 0.00 | 84 | 999.3 |
| 20260505212036 | 84 | 209 | 1.0 | 3.0 | 0.00 | 0.00 | 0.00 | 84 | 999.3 |
| 20260505211936 | 84 | 207 | 1.0 | 3.0 | 0.00 | 0.00 | 0.00 | 84 | 999.3 |
| 20260505211835 | 84 | 134 | 0.0 | 3.0 | 0.00 | 0.00 | 0.00 | 84 | 999.3 |
| 20260505211738 | 84 | 116 | 0.0 | 3.0 | 0.00 | 0.00 | 0.00 | 84 | 999.3 |
| 20260505211636 | 84 | 295 | 0.0 | 3.0 | 0.00 | 0.00 | 0.00 | 84 | 999.4 |
| 20260505211536 | 84 | 309 | 0.0 | 3.0 | 0.00 | 0.00 | 0.00 | 84 | 999.4 |
| 20260505211434 | 84 | 266 | 0.0 | 3.0 | 0.00 | 0.00 | 0.00 | 84 | 999.3 |
| 20260505211336 | 84 | 268 | 0.0 | 3.0 | 0.00 | 0.00 | 0.00 | 84 | 999.5 |
| 20260505211234 | 84 | 268 | 0.0 | 3.0 | 0.00 | 0.00 | 0.00 | 84 | 999.4 |
| 20260505211136 | 84 | 268 | 0.0 | 3.0 | 0.00 | 0.00 | 0.00 | 84 | 999.5 |
| 20260505211035 | 84 | 298 | 1.0 | 3.0 | 0.00 | 0.00 | 0.00 | 84 | 999.5 |
| 20260505210937 | 84 | 271 | 0.0 | 3.0 | 0.00 | 0.00 | 0.00 | 84 | 999.4 |
| 20260505210834 | 84 | 193 | 0.0 | 2.0 | 0.00 | 0.00 | 0.00 | 84 | 999.5 |
| 20260505210734 | 84 | 190 | 0.0 | 2.0 | 0.00 | 0.00 | 0.00 | 84 | 999.4 |
| 20260505210636 | 84 | 0 | 0.0 | 2.0 | 0.00 | 0.00 | 0.00 | 84 | 999.5 |
| 20260505210535 | 84 | 0 | 0.0 | 2.0 | 0.00 | 0.00 | 0.00 | 84 | 999.4 |
| 20260505210435 | 84 | 190 | 0.0 | 2.0 | 0.00 | 0.00 | 0.00 | 83 | 999.5 |
| 20260505210336 | 84 | 185 | 0.0 | 2.0 | 0.00 | 0.00 | 0.00 | 83 | 999.5 |
| 20260505210234 | 84 | 185 | 0.0 | 3.0 | 0.00 | 0.00 | 0.00 | 83 | 999.5 |
| 20260505210136 | 84 | 195 | 0.0 | 4.0 | 0.00 | 0.00 | 0.00 | 83 | 999.5 |
| 20260505210035 | 84 | 348 | 0.0 | 4.0 | 0.00 | 0.00 | 0.00 | 84 | 999.5 |
| 20260505205934 | 84 | 173 | 0.0 | 4.0 | 0.00 | 0.00 | 0.00 | 84 | 999.5 |
| 20260505205834 | 84 | 172 | 0.0 | 4.0 | 0.00 | 0.00 | 0.00 | 84 | 999.4 |
| 20260505205736 | 84 | 248 | 0.0 | 4.0 | 0.00 | 0.00 | 0.00 | 84 | 999.5 |
| 20260505205635 | 84 | 243 | 0.0 | 4.0 | 0.00 | 0.00 | 0.00 | 84 | 999.5 |
| 20260505205535 | 84 | 244 | 0.0 | 4.0 | 0.00 | 0.00 | 0.00 | 84 | 999.4 |
| 20260505205434 | 84 | 127 | 1.0 | 4.0 | 0.00 | 0.00 | 0.00 | 84 | 999.6 |
| 20260505205333 | 84 | 206 | 1.0 | 4.0 | 0.00 | 0.00 | 0.00 | 84 | 999.5 |
| 20260505205234 | 84 | 180 | 1.0 | 4.0 | 0.00 | 0.00 | 0.00 | 84 | 999.5 |
| 20260505205134 | 84 | 300 | 0.0 | 4.0 | 0.00 | 0.00 | 0.00 | 84 | 999.5 |
| 20260505205036 | 84 | 314 | 0.0 | 4.0 | 0.00 | 0.00 | 0.00 | 84 | 999.6 |
| 20260505204934 | 84 | 220 | 0.0 | 4.0 | 0.00 | 0.00 | 0.00 | 84 | 999.5 |
| 20260505204833 | 84 | 133 | 0.0 | 4.0 | 0.00 | 0.00 | 0.00 | 84 | 999.6 |
| 20260505204736 | 84 | 124 | 1.0 | 4.0 | 0.00 | 0.00 | 0.00 | 84 | 999.6 |
| 20260505204646 | 84 | 207 | 1.0 | 4.0 | 0.00 | 0.00 | 0.00 | 84 | 999.6 |
| 20260505204533 | 84 | 269 | 0.0 | 4.0 | 0.00 | 0.00 | 0.00 | 84 | 999.6 |
| 20260505204434 | 84 | 276 | 0.0 | 4.0 | 0.00 | 0.00 | 0.00 | 84 | 999.6 |
| 20260505204334 | 84 | 288 | 0.0 | 4.0 | 0.00 | 0.00 | 0.00 | 84 | 999.6 |
| 20260505204234 | 84 | 0 | 0.0 | 4.0 | 0.00 | 0.00 | 0.00 | 84 | 999.6 |
| 20260505204140 | 84 | 127 | 0.0 | 4.0 | 0.00 | 0.00 | 0.00 | 84 | 999.6 |
| 20260505204034 | 84 | 56 | 0.0 | 4.0 | 0.00 | 0.00 | 0.00 | 84 | 999.5 |
| 20260505203934 | 84 | 21 | 1.0 | 4.0 | 0.00 | 0.00 | 0.00 | 84 | 999.6 |
| 20260505203835 | 84 | 185 | 0.0 | 4.0 | 0.00 | 0.00 | 0.00 | 84 | 999.7 |
| 20260505203733 | 84 | 329 | 0.0 | 1.0 | 0.00 | 0.00 | 0.00 | 84 | 999.7 |
| 20260505203635 | 84 | 144 | 0.0 | 1.0 | 0.00 | 0.00 | 0.00 | 84 | 999.7 |
| 20260505203534 | 84 | 104 | 0.0 | 1.0 | 0.00 | 0.00 | 0.00 | 84 | 999.7 |
| 20260505203435 | 84 | 275 | 0.0 | 1.0 | 0.00 | 0.00 | 0.00 | 85 | 999.7 |
| 20260505203335 | 84 | 231 | 0.0 | 1.0 | 0.00 | 0.00 | 0.00 | 84 | 999.8 |
| 20260505203234 | 84 | 175 | 0.0 | 1.0 | 0.00 | 0.00 | 0.00 | 84 | 999.7 |
| 20260505203134 | 84 | 278 | 0.0 | 1.0 | 0.00 | 0.00 | 0.00 | 84 | 999.8 |
| 20260505203034 | 84 | 237 | 0.0 | 1.0 | 0.00 | 0.00 | 0.00 | 84 | 999.8 |
| 20260505202935 | 83 | 227 | 0.0 | 1.0 | 0.00 | 0.00 | 0.00 | 84 | 999.9 |
| 20260505202833 | 83 | 197 | 0.0 | 1.0 | 0.00 | 0.00 | 0.00 | 84 | 999.8 |
| 20260505202735 | 83 | 261 | 0.0 | 0.0 | 0.00 | 0.00 | 0.00 | 84 | 999.9 |
| 20260505202634 | 83 | 272 | 0.0 | 0.0 | 0.00 | 0.00 | 0.00 | 84 | 999.9 |
| 20260505202534 | 83 | 224 | 0.0 | 1.0 | 0.00 | 0.00 | 0.00 | 85 | 999.9 |
| 20260505202433 | 83 | 317 | 0.0 | 1.0 | 0.00 | 0.00 | 0.00 | 85 | 999.9 |
| 20260505202334 | 83 | 307 | 0.0 | 1.0 | 0.00 | 0.00 | 0.00 | 85 | 999.9 |
| 20260505202233 | 83 | 283 | 0.0 | 3.0 | 0.00 | 0.00 | 0.00 | 85 | 999.9 |
| 20260505202133 | 83 | 268 | 0.0 | 3.0 | 0.00 | 0.00 | 0.00 | 85 | 1000.0 |
| 20260505202035 | 83 | 149 | 0.0 | 3.0 | 0.00 | 0.00 | 0.00 | 85 | 1000.0 |
| 20260505201934 | 83 | 251 | 0.0 | 3.0 | 0.00 | 0.00 | 0.00 | 85 | 1000.0 |
| 20260505201833 | 83 | 340 | 0.0 | 3.0 | 0.00 | 0.00 | 0.00 | 85 | 1000.0 |
| 20260505201733 | 83 | 0 | 0.0 | 3.0 | 0.00 | 0.00 | 0.00 | 85 | 1000.0 |
| 20260505201633 | 83 | 169 | 0.0 | 3.0 | 0.00 | 0.00 | 0.00 | 85 | 999.9 |
| 20260505201531 | 83 | 165 | 0.0 | 3.0 | 0.00 | 0.00 | 0.00 | 85 | 1000.0 |
| 20260505201433 | 83 | 176 | 0.0 | 3.0 | 0.00 | 0.00 | 0.00 | 86 | 1000.1 |
| 20260505201332 | 83 | 176 | 0.0 | 3.0 | 0.00 | 0.00 | 0.00 | 86 | 1000.0 |
| 20260505201232 | 83 | 220 | 0.0 | 3.0 | 0.00 | 0.00 | 0.00 | 86 | 1000.0 |
| 20260505201133 | 83 | 161 | 0.0 | 3.0 | 0.00 | 0.00 | 0.00 | 86 | 1000.1 |
| 20260505201033 | 83 | 147 | 0.0 | 3.0 | 0.00 | 0.00 | 0.00 | 86 | 1000.1 |
| 20260505200931 | 83 | 131 | 0.0 | 3.0 | 0.00 | 0.00 | 0.00 | 86 | 1000.0 |
| 20260505200832 | 83 | 94 | 0.0 | 3.0 | 0.00 | 0.00 | 0.00 | 86 | 1000.0 |
| 20260505200728 | 83 | 235 | 0.0 | 3.0 | 0.00 | 0.00 | 0.00 | 86 | 1000.1 |
| 20260505200626 | 83 | 235 | 0.0 | 3.0 | 0.00 | 0.00 | 0.00 | 86 | 1000.2 |
| 20260505200521 | 83 | 276 | 0.0 | 3.0 | 0.00 | 0.00 | 0.00 | 86 | 1000.2 |
| 20260505200420 | 83 | 244 | 0.0 | 0.0 | 0.00 | 0.00 | 0.00 | 86 | 1000.2 |
| 20260505200312 | 83 | 196 | 0.0 | 0.0 | 0.00 | 0.00 | 0.00 | 86 | 1000.2 |
| 20260505200203 | 83 | 121 | 0.0 | 0.0 | 0.00 | 0.00 | 0.00 | 86 | 1000.3 |
| 20260505200103 | 83 | 164 | 0.0 | 0.0 | 0.00 | 0.00 | 0.00 | 86 | 1000.3 |
| 20260505200003 | 83 | 76 | 0.0 | 0.0 | 0.00 | 0.00 | 0.00 | 86 | 1000.3 |
| 20260505195902 | 83 | 168 | 0.0 | 0.0 | 0.00 | 0.00 | 0.00 | 86 | 1000.3 |
| 20260505195805 | 83 | 178 | 0.0 | 0.0 | 0.00 | 0.00 | 0.00 | 86 | 1000.4 |
| 20260505195702 | 83 | 176 | 0.0 | 0.0 | 0.00 | 0.00 | 0.00 | 86 | 1000.4 |
| 20260505195603 | 83 | 171 | 0.0 | 4.0 | 0.00 | 0.00 | 0.00 | 86 | 1000.4 |
| 20260505195504 | 83 | 171 | 0.0 | 5.0 | 0.00 | 0.00 | 0.00 | 86 | 1000.4 |
| 20260505195403 | 83 | 171 | 0.0 | 5.0 | 0.00 | 0.00 | 0.00 | 86 | 1000.5 |
| 20260505195304 | 83 | 169 | 0.0 | 5.0 | 0.00 | 0.00 | 0.00 | 86 | 1000.5 |
| 20260505195202 | 83 | 207 | 0.0 | 5.0 | 0.00 | 0.00 | 0.00 | 86 | 1000.4 |
| 20260505195103 | 83 | 207 | 0.0 | 5.0 | 0.00 | 0.00 | 0.00 | 85 | 1000.5 |
| 20260505195003 | 83 | 207 | 0.0 | 5.0 | 0.00 | 0.00 | 0.00 | 85 | 1000.5 |
| 20260505194902 | 83 | 207 | 0.0 | 5.0 | 0.00 | 0.00 | 0.00 | 85 | 1000.5 |
| 20260505194804 | 83 | 206 | 0.0 | 5.0 | 0.00 | 0.00 | 0.00 | 85 | 1000.6 |
| 20260505194704 | 83 | 186 | 1.0 | 5.0 | 0.00 | 0.00 | 0.00 | 86 | 1000.6 |
| 20260505194602 | 83 | 216 | 0.0 | 5.0 | 0.00 | 0.00 | 0.00 | 86 | 1000.6 |
| 20260505194504 | 83 | 227 | 0.0 | 0.0 | 0.00 | 0.00 | 0.00 | 86 | 1000.5 |
| 20260505194403 | 83 | 234 | 0.0 | 0.0 | 0.00 | 0.00 | 0.00 | 86 | 1000.6 |
| 20260505194303 | 83 | 195 | 0.0 | 0.0 | 0.00 | 0.00 | 0.00 | 86 | 1000.6 |
| 20260505194203 | 83 | 196 | 0.0 | 0.0 | 0.00 | 0.00 | 0.00 | 86 | 1000.6 |
| 20260505194102 | 83 | 171 | 0.0 | 0.0 | 0.00 | 0.00 | 0.00 | 86 | 1000.7 |
| 20260505194002 | 83 | 278 | 0.0 | 0.0 | 0.00 | 0.00 | 0.00 | 86 | 1000.7 |
| 20260505193904 | 83 | 278 | 0.0 | 1.0 | 0.00 | 0.00 | 0.00 | 86 | 1000.7 |
| 20260505193805 | 83 | 197 | 0.0 | 1.0 | 0.00 | 0.00 | 0.00 | 86 | 1000.7 |
| 20260505193705 | 83 | 185 | 0.0 | 1.0 | 0.00 | 0.00 | 0.00 | 86 | 1000.7 |
| 20260505193603 | 82 | 110 | 0.0 | 1.0 | 0.00 | 0.00 | 0.00 | 86 | 1000.7 |
| 20260505193503 | 82 | 212 | 0.0 | 4.0 | 0.00 | 0.00 | 0.00 | 86 | 1000.7 |
| 20260505193402 | 82 | 212 | 0.0 | 4.0 | 0.00 | 0.00 | 0.00 | 86 | 1000.6 |
| 20260505193304 | 82 | 206 | 0.0 | 5.0 | 0.00 | 0.00 | 0.00 | 86 | 1000.6 |
| 20260505193204 | 82 | 199 | 0.0 | 5.0 | 0.00 | 0.00 | 0.00 | 86 | 1000.7 |
| 20260505193102 | 82 | 173 | 0.0 | 5.0 | 0.00 | 0.00 | 0.00 | 86 | 1000.7 |
| 20260505193003 | 82 | 252 | 0.0 | 5.0 | 0.00 | 0.00 | 0.00 | 86 | 1000.7 |
| 20260505192904 | 82 | 125 | 0.0 | 5.0 | 0.00 | 0.00 | 0.00 | 86 | 1000.7 |
| 20260505192803 | 82 | 147 | 0.0 | 5.0 | 0.00 | 0.00 | 0.00 | 87 | 1000.7 |
| 20260505192705 | 82 | 182 | 0.0 | 5.0 | 0.00 | 0.00 | 0.00 | 87 | 1000.7 |
| 20260505192604 | 82 | 178 | 0.0 | 5.0 | 0.00 | 0.00 | 0.00 | 87 | 1000.8 |
| 20260505192503 | 82 | 168 | 1.0 | 5.0 | 0.00 | 0.00 | 0.00 | 87 | 1000.7 |
| 20260505192403 | 82 | 144 | 1.0 | 5.0 | 0.00 | 0.00 | 0.00 | 87 | 1000.7 |
| 20260505192259 | 82 | 183 | 2.0 | 4.0 | 0.00 | 0.00 | 0.00 | 87 | 1000.7 |
| 20260505192200 | 82 | 157 | 2.0 | 4.0 | 0.00 | 0.00 | 0.00 | 87 | 1000.8 |
| 20260505192055 | 82 | 152 | 1.0 | 3.0 | 0.00 | 0.00 | 0.00 | 87 | 1000.7 |
| 20260505191950 | 82 | 25 | 0.0 | 1.0 | 0.00 | 0.00 | 0.00 | 87 | 1000.6 |
| 20260505191835 | 82 | 313 | 0.0 | 1.0 | 0.00 | 0.00 | 0.00 | 87 | 1000.6 |
| 20260505191732 | 82 | 309 | 0.0 | 1.0 | 0.00 | 0.00 | 0.00 | 87 | 1000.7 |
| 20260505191630 | 82 | 99 | 0.0 | 2.0 | 0.00 | 0.00 | 0.00 | 87 | 1000.6 |
| 20260505191533 | 82 | 182 | 0.0 | 2.0 | 0.00 | 0.00 | 0.00 | 87 | 1000.6 |
| 20260505191432 | 82 | 182 | 0.0 | 2.0 | 0.00 | 0.00 | 0.00 | 87 | 1000.6 |
| 20260505191331 | 82 | 200 | 0.0 | 2.0 | 0.00 | 0.00 | 0.00 | 87 | 1000.7 |
| 20260505191231 | 82 | 200 | 0.0 | 2.0 | 0.00 | 0.00 | 0.00 | 87 | 1000.7 |
| 20260505191131 | 82 | 210 | 0.0 | 2.0 | 0.00 | 0.00 | 0.00 | 87 | 1000.7 |
| 20260505191032 | 82 | 210 | 0.0 | 2.0 | 0.00 | 0.00 | 0.00 | 87 | 1000.6 |
| 20260505190933 | 82 | 210 | 0.0 | 2.0 | 0.00 | 0.00 | 0.00 | 87 | 1000.6 |
| 20260505190832 | 82 | 134 | 0.0 | 2.0 | 0.00 | 0.00 | 0.00 | 87 | 1000.7 |
| 20260505190731 | 82 | 133 | 0.0 | 2.0 | 0.00 | 0.00 | 0.00 | 87 | 1000.8 |
| 20260505190632 | 82 | 192 | 0.0 | 1.0 | 0.00 | 0.00 | 0.00 | 87 | 1000.7 |
| 20260505190533 | 82 | 300 | 0.0 | 1.0 | 0.00 | 0.00 | 0.00 | 87 | 1000.7 |
| 20260505190432 | 82 | 300 | 0.0 | 1.0 | 0.00 | 0.00 | 0.00 | 87 | 1000.7 |
| 20260505190330 | 82 | 300 | 0.0 | 1.0 | 0.00 | 0.00 | 0.00 | 87 | 1000.7 |
| 20260505190225 | 82 | 300 | 0.0 | 1.0 | 0.00 | 0.00 | 0.00 | 87 | 1000.8 |
| 20260505190118 | 82 | 300 | 0.0 | 1.0 | 0.00 | 0.00 | 0.00 | 87 | 1000.8 |
| 20260505190014 | 82 | 295 | 0.0 | 1.0 | 0.00 | 0.00 | 0.00 | 87 | 1000.7 |
| 20260505185906 | 82 | 37 | 0.0 | 1.0 | 0.00 | 0.00 | 0.00 | 88 | 1000.8 |
| 20260505185804 | 82 | 261 | 0.0 | 1.0 | 0.00 | 0.00 | 0.00 | 88 | 1000.8 |
| 20260505185705 | 81 | 235 | 0.0 | 1.0 | 0.00 | 0.00 | 0.00 | 88 | 1000.8 |
| 20260505185604 | 81 | 144 | 0.0 | 3.0 | 0.00 | 0.00 | 0.00 | 88 | 1000.8 |
| 20260505185505 | 81 | 278 | 0.0 | 3.0 | 0.00 | 0.00 | 0.00 | 88 | 1000.9 |
| 20260505185402 | 81 | 271 | 0.0 | 3.0 | 0.00 | 0.00 | 0.00 | 88 | 1000.9 |
| 20260505185304 | 81 | 269 | 0.0 | 3.0 | 0.00 | 0.00 | 0.00 | 88 | 1000.8 |
| 20260505185204 | 81 | 125 | 0.0 | 3.0 | 0.00 | 0.00 | 0.00 | 88 | 1000.8 |
| 20260505185102 | 81 | 210 | 0.0 | 3.0 | 0.00 | 0.00 | 0.00 | 88 | 1000.8 |
| 20260505185003 | 81 | 210 | 0.0 | 3.0 | 0.00 | 0.00 | 0.00 | 88 | 1000.8 |
| 20260505184902 | 81 | 234 | 0.0 | 3.0 | 0.00 | 0.00 | 0.00 | 88 | 1000.8 |
| 20260505184802 | 81 | 162 | 0.0 | 3.0 | 0.00 | 0.00 | 0.00 | 88 | 1000.8 |
| 20260505184702 | 81 | 219 | 0.0 | 3.0 | 0.00 | 0.00 | 0.00 | 88 | 1000.7 |
| 20260505184603 | 81 | 138 | 0.0 | 3.0 | 0.00 | 0.00 | 0.00 | 89 | 1000.8 |
| 20260505184504 | 81 | 193 | 0.0 | 3.0 | 0.00 | 0.00 | 0.00 | 89 | 1000.8 |
| 20260505184403 | 81 | 175 | 0.0 | 3.0 | 0.00 | 0.00 | 0.00 | 89 | 1000.8 |
| 20260505184304 | 81 | 71 | 0.0 | 3.0 | 0.00 | 0.00 | 0.00 | 89 | 1000.8 |
| 20260505184203 | 81 | 266 | 0.0 | 3.0 | 0.00 | 0.00 | 0.00 | 89 | 1000.8 |
| 20260505184104 | 81 | 265 | 0.0 | 3.0 | 0.00 | 0.00 | 0.00 | 89 | 1000.9 |
| 20260505184004 | 81 | 281 | 0.0 | 3.0 | 0.00 | 0.00 | 0.00 | 89 | 1000.8 |
| 20260505183902 | 81 | 200 | 0.0 | 2.0 | 0.00 | 0.00 | 0.00 | 89 | 1000.9 |
| 20260505183802 | 81 | 254 | 0.0 | 3.0 | 0.00 | 0.00 | 0.00 | 89 | 1000.9 |
| 20260505183703 | 81 | 72 | 0.0 | 3.0 | 0.00 | 0.00 | 0.00 | 89 | 1000.9 |
| 20260505183602 | 80 | 199 | 0.0 | 3.0 | 0.00 | 0.00 | 0.00 | 89 | 1000.8 |
| 20260505183504 | 80 | 240 | 0.0 | 3.0 | 0.00 | 0.00 | 0.00 | 89 | 1000.9 |
| 20260505183403 | 80 | 254 | 0.0 | 3.0 | 0.00 | 0.00 | 0.00 | 89 | 1001.0 |
| 20260505183302 | 80 | 212 | 0.0 | 3.0 | 0.00 | 0.00 | 0.00 | 89 | 1001.0 |
| 20260505183203 | 80 | 248 | 0.0 | 3.0 | 0.00 | 0.00 | 0.00 | 89 | 1000.9 |
| 20260505183107 | 80 | 255 | 0.0 | 3.0 | 0.00 | 0.00 | 0.00 | 90 | 1000.9 |
| 20260505183002 | 80 | 241 | 0.0 | 3.0 | 0.00 | 0.00 | 0.00 | 90 | 1001.0 |
| 20260505182903 | 80 | 180 | 0.0 | 3.0 | 0.00 | 0.00 | 0.00 | 90 | 1001.0 |
| 20260505182803 | 80 | 197 | 0.0 | 2.0 | 0.00 | 0.00 | 0.00 | 90 | 1001.0 |
| 20260505182702 | 80 | 169 | 0.0 | 2.0 | 0.00 | 0.00 | 0.00 | 90 | 1000.9 |
| 20260505182606 | 80 | 269 | 0.0 | 1.0 | 0.00 | 0.00 | 0.00 | 90 | 1000.9 |
| 20260505182503 | 80 | 245 | 0.0 | 1.0 | 0.00 | 0.00 | 0.00 | 90 | 1000.9 |
| 20260505182402 | 80 | 248 | 0.0 | 1.0 | 0.00 | 0.00 | 0.00 | 90 | 1000.9 |
| 20260505182305 | 80 | 93 | 0.0 | 0.0 | 0.00 | 0.00 | 0.00 | 90 | 1001.1 |
| 20260505182203 | 80 | 223 | 0.0 | 0.0 | 0.00 | 0.00 | 0.00 | 90 | 1001.0 |
| 20260505182104 | 80 | 324 | 0.0 | 0.0 | 0.00 | 0.00 | 0.00 | 90 | 1001.1 |
| 20260505182004 | 80 | 151 | 0.0 | 0.0 | 0.00 | 0.00 | 0.00 | 90 | 1001.1 |
| 20260505181903 | 80 | 281 | 0.0 | 0.0 | 0.00 | 0.00 | 0.00 | 90 | 1001.0 |
| 20260505181802 | 80 | 151 | 0.0 | 0.0 | 0.00 | 0.00 | 0.00 | 90 | 1001.0 |
| 20260505181703 | 80 | 0 | 0.0 | 0.0 | 0.00 | 0.00 | 0.00 | 90 | 1001.0 |
| 20260505181604 | 80 | 0 | 0.0 | 1.0 | 0.00 | 0.00 | 0.00 | 90 | 1001.0 |
| 20260505181504 | 80 | 0 | 0.0 | 1.0 | 0.00 | 0.00 | 0.00 | 90 | 1001.1 |
| 20260505181402 | 80 | 0 | 0.0 | 1.0 | 0.00 | 0.00 | 0.00 | 90 | 1001.1 |
| 20260505181303 | 80 | 0 | 0.0 | 1.0 | 0.00 | 0.00 | 0.00 | 90 | 1001.1 |
| 20260505181204 | 80 | 320 | 0.0 | 1.0 | 0.00 | 0.00 | 0.00 | 90 | 1001.1 |
| 20260505181102 | 80 | 210 | 0.0 | 1.0 | 0.00 | 0.00 | 0.00 | 90 | 1001.2 |
| 20260505181005 | 80 | 207 | 0.0 | 1.0 | 0.00 | 0.00 | 0.00 | 90 | 1001.2 |
| 20260505180904 | 80 | 213 | 0.0 | 1.0 | 0.00 | 0.00 | 0.00 | 90 | 1001.2 |
| 20260505180803 | 80 | 212 | 0.0 | 1.0 | 0.00 | 0.00 | 0.00 | 90 | 1001.2 |
| 20260505180704 | 80 | 285 | 0.0 | 1.0 | 0.00 | 0.00 | 0.00 | 90 | 1001.2 |
| 20260505180602 | 80 | 226 | 0.0 | 1.0 | 0.00 | 0.00 | 0.00 | 90 | 1001.3 |
| 20260505180503 | 80 | 140 | 0.0 | 1.0 | 0.00 | 0.00 | 0.00 | 90 | 1001.3 |
| 20260505180405 | 80 | 196 | 0.0 | 1.0 | 0.00 | 0.00 | 0.00 | 90 | 1001.2 |
| 20260505180304 | 80 | 197 | 0.0 | 1.0 | 0.00 | 0.00 | 0.00 | 90 | 1001.2 |
| 20260505180203 | 80 | 63 | 0.0 | 1.0 | 0.00 | 0.00 | 0.00 | 90 | 1001.2 |
| 20260505180103 | 80 | 63 | 0.0 | 1.0 | 0.00 | 0.00 | 0.00 | 90 | 1001.3 |
| 20260505180003 | 80 | 62 | 0.0 | 1.0 | 0.00 | 0.00 | 0.00 | 91 | 1001.3 |
| 20260505175904 | 80 | 58 | 0.0 | 1.0 | 0.00 | 0.00 | 0.00 | 91 | 1001.3 |
| 20260505175803 | 80 | 207 | 0.0 | 1.0 | 0.00 | 0.00 | 0.00 | 91 | 1001.4 |
| 20260505175704 | 80 | 200 | 0.0 | 1.0 | 0.00 | 0.00 | 0.00 | 91 | 1001.4 |
| 20260505175602 | 80 | 343 | 0.0 | 1.0 | 0.00 | 0.00 | 0.00 | 91 | 1001.3 |
| 20260505175505 | 80 | 223 | 0.0 | 1.0 | 0.00 | 0.00 | 0.00 | 91 | 1001.2 |
| 20260505175404 | 80 | 221 | 0.0 | 1.0 | 0.00 | 0.00 | 0.00 | 91 | 1001.4 |
| 20260505175305 | 80 | 219 | 0.0 | 1.0 | 0.00 | 0.00 | 0.00 | 91 | 1001.3 |
| 20260505175204 | 80 | 219 | 0.0 | 1.0 | 0.00 | 0.00 | 0.00 | 91 | 1001.3 |
| 20260505175103 | 80 | 209 | 0.0 | 1.0 | 0.00 | 0.00 | 0.00 | 91 | 1001.3 |
| 20260505175003 | 80 | 25 | 0.0 | 0.0 | 0.00 | 0.00 | 0.00 | 91 | 1001.3 |
| 20260505174902 | 80 | 254 | 0.0 | 0.0 | 0.00 | 0.00 | 0.00 | 92 | 1001.3 |
| 20260505174803 | 80 | 195 | 0.0 | 0.0 | 0.00 | 0.00 | 0.00 | 92 | 1001.2 |
| 20260505174702 | 80 | 196 | 0.0 | 0.0 | 0.00 | 0.00 | 0.00 | 92 | 1001.1 |
| 20260505174602 | 79 | 118 | 0.0 | 0.0 | 0.00 | 0.00 | 0.00 | 92 | 1001.3 |
| 20260505174504 | 79 | 200 | 0.0 | 0.0 | 0.00 | 0.00 | 0.00 | 92 | 1001.3 |
| 20260505174402 | 79 | 168 | 0.0 | 0.0 | 0.00 | 0.00 | 0.00 | 92 | 1001.3 |
| 20260505174304 | 79 | 20 | 0.0 | 0.0 | 0.00 | 0.00 | 0.00 | 92 | 1001.3 |
| 20260505174203 | 79 | 20 | 0.0 | 0.0 | 0.00 | 0.00 | 0.00 | 93 | 1001.4 |
| 20260505174103 | 79 | 157 | 0.0 | 0.0 | 0.00 | 0.00 | 0.00 | 93 | 1001.3 |
| 20260505174004 | 79 | 298 | 0.0 | 1.0 | 0.00 | 0.00 | 0.00 | 93 | 1001.3 |
| 20260505173902 | 79 | 295 | 0.0 | 1.0 | 0.00 | 0.00 | 0.00 | 93 | 1001.4 |
| 20260505173804 | 79 | 63 | 0.0 | 1.0 | 0.00 | 0.00 | 0.00 | 93 | 1001.4 |
| 20260505173705 | 79 | 0 | 0.0 | 1.0 | 0.00 | 0.00 | 0.00 | 93 | 1001.4 |
| 20260505173603 | 79 | 336 | 0.0 | 1.0 | 0.00 | 0.00 | 0.00 | 93 | 1001.4 |
| 20260505173503 | 79 | 337 | 0.0 | 1.0 | 0.00 | 0.00 | 0.00 | 93 | 1001.3 |
| 20260505173403 | 79 | 337 | 0.0 | 1.0 | 0.00 | 0.00 | 0.00 | 93 | 1001.3 |
| 20260505173302 | 79 | 351 | 0.0 | 1.0 | 0.00 | 0.00 | 0.00 | 93 | 1001.4 |
| 20260505173203 | 79 | 230 | 0.0 | 1.0 | 0.00 | 0.00 | 0.00 | 93 | 1001.4 |
| 20260505173103 | 79 | 162 | 0.0 | 1.0 | 0.00 | 0.00 | 0.00 | 93 | 1001.3 |
| 20260505172954 | 79 | 235 | 0.0 | 1.0 | 0.00 | 0.00 | 0.00 | 93 | 1001.4 |
| 20260505172851 | 78 | 235 | 0.0 | 1.0 | 0.00 | 0.00 | 0.00 | 93 | 1001.3 |
| 20260505172746 | 78 | 197 | 0.0 | 1.0 | 0.00 | 0.00 | 0.00 | 93 | 1001.3 |
| 20260505172646 | 78 | 305 | 0.0 | 1.0 | 0.00 | 0.00 | 0.00 | 93 | 1001.4 |
| 20260505172542 | 78 | 305 | 0.0 | 1.0 | 0.00 | 0.00 | 0.00 | 93 | 1001.4 |
| 20260505172441 | 78 | 305 | 0.0 | 1.0 | 0.00 | 0.00 | 0.00 | 93 | 1001.4 |
| 20260505172331 | 78 | 161 | 0.0 | 1.0 | 0.00 | 0.00 | 0.00 | 93 | 1001.4 |
| 20260505172233 | 78 | 226 | 0.0 | 1.0 | 0.00 | 0.00 | 0.00 | 94 | 1001.4 |
| 20260505172131 | 78 | 144 | 0.0 | 1.0 | 0.00 | 0.00 | 0.00 | 94 | 1001.3 |
| 20260505172030 | 78 | 155 | 0.0 | 1.0 | 0.00 | 0.00 | 0.00 | 94 | 1001.4 |
| 20260505171932 | 78 | 179 | 0.0 | 6.0 | 0.00 | 0.00 | 0.00 | 94 | 1001.4 |
| 20260505171832 | 78 | 212 | 0.0 | 6.0 | 0.00 | 0.00 | 0.00 | 94 | 1001.4 |
| 20260505171731 | 78 | 204 | 0.0 | 6.0 | 0.00 | 0.00 | 0.00 | 94 | 1001.5 |
| 20260505171631 | 78 | 204 | 0.0 | 6.0 | 0.00 | 0.00 | 0.00 | 94 | 1001.4 |
| 20260505171533 | 78 | 200 | 0.0 | 6.0 | 0.00 | 0.00 | 0.00 | 94 | 1001.4 |
| 20260505171431 | 78 | 165 | 0.0 | 6.0 | 0.00 | 0.00 | 0.00 | 94 | 1001.4 |
| 20260505171332 | 78 | 166 | 0.0 | 6.0 | 0.00 | 0.00 | 0.00 | 94 | 1001.5 |
| 20260505171230 | 78 | 165 | 0.0 | 6.0 | 0.00 | 0.00 | 0.00 | 94 | 1001.4 |
| 20260505171132 | 78 | 165 | 2.0 | 6.0 | 0.00 | 0.00 | 0.00 | 94 | 1001.4 |
| 20260505171031 | 78 | 159 | 2.0 | 6.0 | 0.00 | 0.00 | 0.00 | 95 | 1001.4 |
| 20260505170931 | 78 | 237 | 0.0 | 3.0 | 0.00 | 0.00 | 0.00 | 95 | 1001.5 |
| 20260505170831 | 78 | 234 | 0.0 | 3.0 | 0.00 | 0.00 | 0.00 | 95 | 1001.5 |
| 20260505170731 | 78 | 235 | 0.0 | 3.0 | 0.00 | 0.00 | 0.00 | 95 | 1001.4 |
| 20260505170633 | 78 | 235 | 0.0 | 3.0 | 0.00 | 0.00 | 0.00 | 95 | 1001.5 |
| 20260505170532 | 78 | 234 | 0.0 | 3.0 | 0.00 | 0.00 | 0.00 | 95 | 1001.4 |
| 20260505170431 | 78 | 71 | 1.0 | 3.0 | 0.00 | 0.00 | 0.00 | 95 | 1001.5 |
| 20260505170333 | 78 | 233 | 1.0 | 3.0 | 0.00 | 0.00 | 0.00 | 96 | 1001.4 |
| 20260505170231 | 78 | 282 | 0.0 | 0.0 | 0.00 | 0.00 | 0.00 | 96 | 1001.5 |
| 20260505170130 | 78 | 220 | 0.0 | 0.0 | 0.00 | 0.00 | 0.00 | 96 | 1001.5 |
| 20260505170030 | 78 | 350 | 0.0 | 1.0 | 0.00 | 0.00 | 0.00 | 96 | 1001.5 |
| 20260505165928 | 78 | 307 | 0.0 | 1.0 | 0.00 | 0.00 | 0.00 | 96 | 1001.6 |
| 20260505165831 | 78 | 293 | 0.0 | 1.0 | 0.00 | 0.00 | 0.00 | 96 | 1001.5 |
| 20260505165730 | 78 | 172 | 0.0 | 1.0 | 0.00 | 0.00 | 0.00 | 96 | 1001.6 |
| 20260505165630 | 78 | 172 | 0.0 | 1.0 | 0.00 | 0.00 | 0.00 | 96 | 1001.6 |
| 20260505165528 | 77 | 172 | 0.0 | 1.0 | 0.00 | 0.00 | 0.00 | 96 | 1001.5 |
| 20260505165430 | 77 | 172 | 0.0 | 1.0 | 0.00 | 0.00 | 0.00 | 96 | 1001.6 |
| 20260505165331 | 77 | 172 | 0.0 | 1.0 | 0.00 | 0.00 | 0.00 | 96 | 1001.5 |
| 20260505165228 | 77 | 172 | 0.0 | 1.0 | 0.00 | 0.00 | 0.00 | 96 | 1001.5 |
| 20260505165128 | 77 | 168 | 1.0 | 3.0 | 0.00 | 0.00 | 0.00 | 96 | 1001.6 |
| 20260505165028 | 77 | 204 | 0.0 | 3.0 | 0.00 | 0.00 | 0.00 | 96 | 1001.6 |
| 20260505164929 | 77 | 178 | 0.0 | 3.0 | 0.00 | 0.00 | 0.00 | 96 | 1001.6 |
| 20260505164828 | 77 | 145 | 0.0 | 3.0 | 0.00 | 0.00 | 0.00 | 96 | 1001.6 |
| 20260505164729 | 77 | 145 | 0.0 | 3.0 | 0.00 | 0.00 | 0.00 | 96 | 1001.6 |
| 20260505164629 | 77 | 134 | 0.0 | 3.0 | 0.00 | 0.00 | 0.00 | 96 | 1001.6 |
| 20260505164530 | 77 | 32 | 0.0 | 3.0 | 0.00 | 0.00 | 0.00 | 96 | 1001.6 |
| 20260505164430 | 77 | 141 | 0.0 | 3.0 | 0.00 | 0.00 | 0.00 | 97 | 1001.6 |
| 20260505164330 | 77 | 38 | 0.0 | 3.0 | 0.00 | 0.00 | 0.00 | 97 | 1001.6 |
| 20260505164229 | 77 | 303 | 0.0 | 3.0 | 0.00 | 0.00 | 0.00 | 97 | 1001.6 |
| 20260505164128 | 77 | 175 | 0.0 | 3.0 | 0.00 | 0.00 | 0.00 | 97 | 1001.6 |
| 20260505164029 | 77 | 175 | 0.0 | 3.0 | 0.00 | 0.00 | 0.00 | 97 | 1001.6 |
| 20260505163929 | 77 | 189 | 0.0 | 3.0 | 0.00 | 0.00 | 0.00 | 97 | 1001.6 |
| 20260505163828 | 77 | 199 | 0.0 | 3.0 | 0.00 | 0.00 | 0.00 | 97 | 1001.6 |
| 20260505163728 | 77 | 199 | 0.0 | 3.0 | 0.00 | 0.00 | 0.00 | 97 | 1001.6 |
| 20260505163628 | 77 | 199 | 0.0 | 3.0 | 0.00 | 0.00 | 0.00 | 97 | 1001.6 |
| 20260505163530 | 76 | 192 | 0.0 | 3.0 | 0.00 | 0.00 | 0.00 | 97 | 1001.7 |
| 20260505163429 | 76 | 255 | 0.0 | 3.0 | 0.00 | 0.00 | 0.00 | 97 | 1001.6 |
| 20260505163331 | 76 | 255 | 0.0 | 3.0 | 0.00 | 0.00 | 0.00 | 97 | 1001.6 |
| 20260505163229 | 76 | 288 | 0.0 | 2.0 | 0.00 | 0.00 | 0.00 | 97 | 1001.6 |
| 20260505163128 | 76 | 288 | 0.0 | 2.0 | 0.00 | 0.00 | 0.00 | 96 | 1001.7 |
| 20260505163029 | 76 | 288 | 0.0 | 2.0 | 0.00 | 0.00 | 0.00 | 96 | 1001.6 |
| 20260505162930 | 76 | 288 | 0.0 | 2.0 | 0.00 | 0.00 | 0.00 | 96 | 1001.7 |
| 20260505162828 | 76 | 289 | 0.0 | 3.0 | 0.00 | 0.00 | 0.00 | 96 | 1001.6 |
| 20260505162728 | 76 | 288 | 0.0 | 3.0 | 0.00 | 0.00 | 0.00 | 96 | 1001.6 |
| 20260505162628 | 76 | 288 | 0.0 | 3.0 | 0.00 | 0.00 | 0.00 | 96 | 1001.7 |
| 20260505162528 | 76 | 288 | 0.0 | 3.0 | 0.00 | 0.00 | 0.00 | 96 | 1001.7 |
| 20260505162428 | 76 | 186 | 0.0 | 3.0 | 0.00 | 0.00 | 0.00 | 96 | 1001.6 |
| 20260505162329 | 76 | 185 | 0.0 | 3.0 | 0.00 | 0.00 | 0.00 | 96 | 1001.7 |
| 20260505162228 | 76 | 128 | 0.0 | 3.0 | 0.00 | 0.00 | 0.00 | 96 | 1001.8 |
| 20260505162127 | 76 | 183 | 0.0 | 3.0 | 0.00 | 0.00 | 0.00 | 96 | 1001.7 |
| 20260505162028 | 76 | 182 | 1.0 | 3.0 | 0.00 | 0.00 | 0.00 | 97 | 1001.7 |
| 20260505161928 | 76 | 265 | 0.0 | 3.0 | 0.00 | 0.00 | 0.00 | 97 | 1001.6 |
| 20260505161828 | 76 | 161 | 0.0 | 2.0 | 0.00 | 0.00 | 0.00 | 97 | 1001.7 |
| 20260505161728 | 76 | 159 | 0.0 | 2.0 | 0.00 | 0.00 | 0.00 | 97 | 1001.6 |
| 20260505161630 | 76 | 178 | 0.0 | 0.0 | 0.00 | 0.00 | 0.00 | 97 | 1001.7 |
| 20260505161528 | 76 | 166 | 0.0 | 0.0 | 0.00 | 0.00 | 0.00 | 97 | 1001.6 |
| 20260505161429 | 76 | 179 | 0.0 | 1.0 | 0.00 | 0.00 | 0.00 | 97 | 1001.6 |
| 20260505161327 | 76 | 178 | 0.0 | 2.0 | 0.00 | 0.00 | 0.00 | 97 | 1001.6 |
| 20260505161228 | 76 | 178 | 0.0 | 2.0 | 0.00 | 0.00 | 0.00 | 97 | 1001.6 |
| 20260505161139 | 76 | 178 | 0.0 | 2.0 | 0.00 | 0.00 | 0.00 | 97 | 1001.6 |
| 20260505161029 | 76 | 56 | 0.0 | 2.0 | 0.00 | 0.00 | 0.00 | 97 | 1001.5 |
| 20260505160928 | 76 | 42 | 0.0 | 2.0 | 0.00 | 0.00 | 0.00 | 97 | 1001.6 |
| 20260505160829 | 76 | 42 | 0.0 | 2.0 | 0.00 | 0.00 | 0.00 | 97 | 1001.5 |
| 20260505160728 | 76 | 333 | 0.0 | 2.0 | 0.00 | 0.00 | 0.00 | 97 | 1001.6 |
| 20260505160633 | 76 | 345 | 0.0 | 4.0 | 0.00 | 0.00 | 0.00 | 97 | 1001.5 |
| 20260505160527 | 76 | 345 | 1.0 | 4.0 | 0.00 | 0.00 | 0.00 | 97 | 1001.5 |
| 20260505160427 | 76 | 250 | 1.0 | 4.0 | 0.00 | 0.00 | 0.00 | 97 | 1001.5 |
| 20260505160329 | 76 | 343 | 0.0 | 4.0 | 0.00 | 0.00 | 0.00 | 97 | 1001.5 |
| 20260505160229 | 76 | 343 | 0.0 | 4.0 | 0.00 | 0.00 | 0.00 | 97 | 1001.5 |
| 20260505160130 | 76 | 343 | 0.0 | 4.0 | 0.00 | 0.00 | 0.00 | 97 | 1001.5 |
| 20260505153303 | 75 | 165 | 0.0 | 3.0 | 0.00 | 0.00 | 0.00 | 98 | 1001.3 |
| 20260505153202 | 75 | 165 | 0.0 | 3.0 | 0.00 | 0.00 | 0.00 | 98 | 1001.3 |
| 20260505153106 | 75 | 165 | 0.0 | 3.0 | 0.00 | 0.00 | 0.00 | 98 | 1001.4 |
| 20260505153003 | 75 | 171 | 0.0 | 2.0 | 0.00 | 0.00 | 0.00 | 98 | 1001.4 |
| 20260505152903 | 75 | 171 | 0.0 | 2.0 | 0.00 | 0.00 | 0.00 | 98 | 1001.3 |
| 20260505152802 | 75 | 171 | 0.0 | 2.0 | 0.00 | 0.00 | 0.00 | 98 | 1001.2 |
| 20260505152704 | 75 | 169 | 0.0 | 2.0 | 0.00 | 0.00 | 0.00 | 98 | 1001.2 |
| 20260505152604 | 75 | 169 | 0.0 | 2.0 | 0.00 | 0.00 | 0.00 | 98 | 1001.2 |
| 20260505152504 | 75 | 171 | 0.0 | 2.0 | 0.00 | 0.00 | 0.00 | 98 | 1001.2 |
| 20260505152403 | 75 | 178 | 1.0 | 2.0 | 0.00 | 0.00 | 0.00 | 98 | 1001.2 |
| 20260505152305 | 75 | 220 | 0.0 | 2.0 | 0.00 | 0.00 | 0.00 | 98 | 1001.3 |
| 20260505152202 | 75 | 250 | 0.0 | 2.0 | 0.00 | 0.00 | 0.00 | 98 | 1001.3 |
| 20260505152107 | 75 | 248 | 1.0 | 5.0 | 0.00 | 0.00 | 0.00 | 98 | 1001.3 |
| 20260505152004 | 75 | 250 | 0.0 | 5.0 | 0.00 | 0.00 | 0.00 | 98 | 1001.3 |
| 20260505151904 | 75 | 250 | 0.0 | 5.0 | 0.00 | 0.00 | 0.00 | 98 | 1001.3 |
| 20260505151802 | 75 | 247 | 0.0 | 5.0 | 0.00 | 0.00 | 0.00 | 98 | 1001.3 |
| 20260505151702 | 75 | 240 | 0.0 | 5.0 | 0.00 | 0.00 | 0.00 | 98 | 1001.3 |
| 20260505151606 | 75 | 245 | 0.0 | 5.0 | 0.00 | 0.00 | 0.00 | 98 | 1001.3 |
| 20260505151504 | 75 | 193 | 0.0 | 5.0 | 0.00 | 0.00 | 0.00 | 98 | 1001.4 |
| 20260505151402 | 75 | 123 | 0.0 | 5.0 | 0.00 | 0.00 | 0.00 | 98 | 1001.4 |
| 20260505151302 | 75 | 123 | 1.0 | 5.0 | 0.00 | 0.00 | 0.00 | 98 | 1001.4 |
| 20260505151203 | 75 | 127 | 1.0 | 5.0 | 0.00 | 0.00 | 0.00 | 98 | 1001.3 |
| 20260505151106 | 74 | 252 | 0.0 | 4.0 | 0.00 | 0.00 | 0.00 | 98 | 1001.4 |
| 20260505151004 | 74 | 251 | 1.0 | 4.0 | 0.00 | 0.00 | 0.00 | 98 | 1001.4 |
| 20260505150902 | 74 | 128 | 1.0 | 4.0 | 0.00 | 0.00 | 0.00 | 98 | 1001.3 |
| 20260505150803 | 74 | 237 | 0.0 | 2.0 | 0.00 | 0.00 | 0.00 | 98 | 1001.4 |
| 20260505150703 | 74 | 237 | 0.0 | 2.0 | 0.00 | 0.00 | 0.00 | 98 | 1001.4 |
| 20260505150610 | 74 | 237 | 0.0 | 2.0 | 0.00 | 0.00 | 0.00 | 98 | 1001.4 |
| 20260505150504 | 74 | 235 | 0.0 | 3.0 | 0.00 | 0.00 | 0.00 | 98 | 1001.3 |
| 20260505150404 | 74 | 235 | 0.0 | 3.0 | 0.00 | 0.00 | 0.00 | 98 | 1001.3 |
| 20260505150303 | 74 | 237 | 0.0 | 3.0 | 0.00 | 0.00 | 0.00 | 98 | 1001.3 |
| 20260505150203 | 74 | 237 | 0.0 | 3.0 | 0.00 | 0.00 | 0.00 | 98 | 1001.2 |
| 20260505140603 | 73 | 244 | 0.0 | 4.0 | 0.00 | 0.00 | 0.00 | 99 | 1001.2 |
| 20260505140502 | 73 | 244 | 0.0 | 4.0 | 0.00 | 0.00 | 0.00 | 99 | 1001.2 |
| 20260505140403 | 73 | 206 | 0.0 | 4.0 | 0.00 | 0.00 | 0.00 | 99 | 1001.2 |
| 20260505140304 | 73 | 212 | 1.0 | 4.0 | 0.00 | 0.00 | 0.00 | 99 | 1001.2 |
| 20260505140202 | 73 | 295 | 1.0 | 4.0 | 0.00 | 0.00 | 0.00 | 99 | 1001.0 |
| 20260505130225 | 71 | 162 | 0.0 | 3.0 | 0.00 | 0.00 | 0.00 | 99 | 1001.1 |
| 20260505130125 | 71 | 172 | 0.0 | 2.0 | 0.00 | 0.00 | 0.00 | 99 | 1001.1 |
| 20260505125024 | 71 | 180 | 0.0 | 2.0 | 0.00 | 0.00 | 0.00 | 99 | 1001.0 |
| 20260505124924 | 71 | 180 | 0.0 | 2.0 | 0.00 | 0.00 | 0.00 | 99 | 1001.0 |
| 20260505124816 | 71 | 185 | 0.0 | 2.0 | 0.00 | 0.00 | 0.00 | 99 | 1001.0 |
| 20260505124711 | 71 | 185 | 0.0 | 2.0 | 0.00 | 0.00 | 0.00 | 99 | 1000.9 |
| 20260505124604 | 71 | 185 | 0.0 | 2.0 | 0.00 | 0.00 | 0.00 | 99 | 1001.0 |
| 20260505124504 | 71 | 185 | 0.0 | 2.0 | 0.00 | 0.00 | 0.00 | 99 | 1001.0 |
| 20260505124403 | 71 | 288 | 0.0 | 2.0 | 0.00 | 0.00 | 0.00 | 99 | 1001.0 |
| 20260505124302 | 71 | 100 | 0.0 | 2.0 | 0.00 | 0.00 | 0.00 | 99 | 1000.9 |
| 20260505124203 | 71 | 123 | 0.0 | 2.0 | 0.00 | 0.00 | 0.00 | 99 | 1001.0 |
| 20260505124106 | 71 | 123 | 0.0 | 2.0 | 0.00 | 0.00 | 0.00 | 99 | 1001.0 |
| 20260505124004 | 71 | 117 | 0.0 | 3.0 | 0.00 | 0.00 | 0.00 | 99 | 1000.8 |
| 20260505123902 | 71 | 117 | 0.0 | 3.0 | 0.00 | 0.00 | 0.00 | 99 | 1000.7 |
| 20260505123803 | 71 | 116 | 0.0 | 3.0 | 0.00 | 0.00 | 0.00 | 99 | 1000.6 |
| 20260505123704 | 71 | 214 | 0.0 | 3.0 | 0.00 | 0.00 | 0.00 | 99 | 1000.5 |
| 20260505123602 | 71 | 209 | 0.0 | 3.0 | 0.00 | 0.00 | 0.00 | 99 | 1000.6 |
| 20260505123506 | 71 | 199 | 0.0 | 3.0 | 0.00 | 0.00 | 0.00 | 99 | 1000.5 |
| 20260505123403 | 71 | 168 | 0.0 | 3.0 | 0.00 | 0.00 | 0.00 | 99 | 1000.4 |
| 20260505123302 | 71 | 166 | 0.0 | 3.0 | 0.00 | 0.00 | 0.00 | 99 | 1000.4 |
| 20260505123206 | 71 | 166 | 1.0 | 3.0 | 0.00 | 0.00 | 0.00 | 99 | 1000.4 |
| 20260505123102 | 71 | 319 | 0.0 | 3.0 | 0.00 | 0.00 | 0.00 | 99 | 1000.4 |
| 20260505123005 | 71 | 233 | 1.0 | 2.0 | 0.00 | 0.00 | 0.00 | 99 | 1000.4 |
| 20260505122904 | 71 | 233 | 0.0 | 2.0 | 0.00 | 0.00 | 0.00 | 99 | 1000.4 |
| 20260505122802 | 71 | 238 | 0.0 | 2.0 | 0.00 | 0.00 | 0.00 | 99 | 1000.5 |
| 20260505122702 | 71 | 240 | 0.0 | 2.0 | 0.00 | 0.00 | 0.00 | 99 | 1000.4 |
| 20260505122603 | 71 | 240 | 0.0 | 2.0 | 0.00 | 0.00 | 0.00 | 99 | 1000.6 |
| 20260505122503 | 71 | 240 | 0.0 | 2.0 | 0.00 | 0.00 | 0.00 | 99 | 1000.6 |
| 20260505122403 | 71 | 240 | 0.0 | 2.0 | 0.00 | 0.00 | 0.00 | 99 | 1000.5 |
| 20260505122305 | 70 | 275 | 0.0 | 2.0 | 0.00 | 0.00 | 0.00 | 99 | 1000.5 |
| 20260505122204 | 71 | 275 | 0.0 | 2.0 | 0.00 | 0.00 | 0.00 | 99 | 1000.6 |
| 20260505122102 | 70 | 276 | 0.0 | 2.0 | 0.00 | 0.00 | 0.00 | 99 | 1000.6 |
| 20260505122005 | 70 | 278 | 0.0 | 2.0 | 0.00 | 0.00 | 0.00 | 99 | 1000.6 |
| 20260505121904 | 70 | 278 | 0.0 | 2.0 | 0.00 | 0.00 | 0.00 | 99 | 1000.6 |
| 20260505121802 | 70 | 217 | 0.0 | 2.0 | 0.00 | 0.00 | 0.00 | 99 | 1000.6 |
| 20260505121703 | 70 | 219 | 0.0 | 2.0 | 0.00 | 0.00 | 0.00 | 99 | 1000.6 |
| 20260505121602 | 70 | 219 | 0.0 | 2.0 | 0.00 | 0.00 | 0.00 | 99 | 1000.6 |
| 20260505121502 | 70 | 219 | 0.0 | 2.0 | 0.00 | 0.00 | 0.00 | 99 | 1000.6 |
| 20260505121402 | 70 | 219 | 0.0 | 2.0 | 0.00 | 0.00 | 0.00 | 99 | 1000.5 |
| 20260505121301 | 70 | 219 | 0.0 | 2.0 | 0.00 | 0.00 | 0.00 | 99 | 1000.6 |
| 20260505121200 | 70 | 186 | 0.0 | 2.0 | 0.00 | 0.00 | 0.00 | 99 | 1000.6 |
| 20260505121055 | 70 | 190 | 0.0 | 2.0 | 0.00 | 0.00 | 0.00 | 99 | 1000.6 |
| 20260505120952 | 70 | 209 | 0.0 | 2.0 | 0.00 | 0.00 | 0.00 | 99 | 1000.7 |
| 20260505120849 | 70 | 209 | 0.0 | 2.0 | 0.00 | 0.00 | 0.00 | 99 | 1000.7 |
| 20260505120744 | 70 | 209 | 0.0 | 2.0 | 0.00 | 0.00 | 0.00 | 99 | 1000.7 |
| 20260505120636 | 70 | 209 | 0.0 | 2.0 | 0.00 | 0.00 | 0.00 | 99 | 1000.7 |
| 20260505120535 | 70 | 209 | 0.0 | 2.0 | 0.00 | 0.00 | 0.00 | 99 | 1000.7 |
| 20260505120432 | 70 | 209 | 0.0 | 2.0 | 0.00 | 0.00 | 0.00 | 99 | 1000.6 |
| 20260505120332 | 70 | 209 | 0.0 | 2.0 | 0.00 | 0.00 | 0.00 | 99 | 1000.5 |
| 20260505120231 | 70 | 207 | 0.0 | 2.0 | 0.00 | 0.00 | 0.00 | 99 | 1000.5 |
| 20260505120131 | 70 | 169 | 1.0 | 2.0 | 0.00 | 0.00 | 0.00 | 99 | 1000.5 |
| 20260505120032 | 70 | 137 | 1.0 | 2.0 | 0.00 | 0.00 | 0.00 | 99 | 1000.4 |
| 20260505115932 | 70 | 0 | 0.0 | 2.0 | 0.00 | 0.00 | 0.00 | 99 | 1000.4 |
| 20260505115832 | 70 | 302 | 0.0 | 2.0 | 0.00 | 0.00 | 0.00 | 99 | 1000.5 |
| 20260505115732 | 70 | 302 | 0.0 | 2.0 | 0.00 | 0.00 | 0.00 | 99 | 1000.5 |
| 20260505115632 | 70 | 302 | 0.0 | 4.0 | 0.00 | 0.00 | 0.00 | 99 | 1000.5 |
| 20260505115532 | 70 | 302 | 0.0 | 4.0 | 0.00 | 0.00 | 0.00 | 99 | 1000.5 |
| 20260505115431 | 70 | 302 | 0.0 | 4.0 | 0.00 | 0.00 | 0.00 | 99 | 1000.5 |
| 20260505115333 | 70 | 302 | 0.0 | 4.0 | 0.00 | 0.00 | 0.00 | 99 | 1000.5 |
| 20260505115232 | 70 | 302 | 0.0 | 4.0 | 0.00 | 0.00 | 0.00 | 99 | 1000.4 |
| 20260505115132 | 70 | 302 | 0.0 | 4.0 | 0.00 | 0.00 | 0.00 | 99 | 1000.4 |
| 20260505115028 | 70 | 305 | 0.0 | 4.0 | 0.00 | 0.00 | 0.00 | 99 | 1000.3 |
| 20260505114924 | 70 | 189 | 0.0 | 4.0 | 0.00 | 0.00 | 0.00 | 99 | 1000.3 |
| 20260505114823 | 70 | 189 | 0.0 | 4.0 | 0.00 | 0.00 | 0.00 | 99 | 1000.2 |
| 20260505114721 | 70 | 190 | 0.0 | 4.0 | 0.00 | 0.00 | 0.00 | 99 | 1000.3 |
| 20260505114622 | 70 | 147 | 0.0 | 4.0 | 0.00 | 0.00 | 0.00 | 99 | 1000.3 |
| 20260505114522 | 70 | 147 | 0.0 | 4.0 | 0.00 | 0.00 | 0.00 | 99 | 1000.3 |
| 20260505114423 | 70 | 147 | 1.0 | 4.0 | 0.00 | 0.00 | 0.00 | 98 | 1000.4 |
| 20260505114323 | 70 | 147 | 1.0 | 4.0 | 0.00 | 0.00 | 0.00 | 98 | 1000.3 |
| 20260505114224 | 70 | 168 | 0.0 | 0.0 | 0.00 | 0.00 | 0.00 | 98 | 1000.3 |
| 20260505114125 | 70 | 168 | 0.0 | 1.0 | 0.00 | 0.00 | 0.00 | 98 | 1000.4 |
| 20260505114022 | 70 | 168 | 0.0 | 1.0 | 0.00 | 0.00 | 0.00 | 98 | 1000.4 |
| 20260505113921 | 70 | 213 | 0.0 | 1.0 | 0.00 | 0.00 | 0.00 | 98 | 1000.4 |
| 20260505113823 | 70 | 219 | 0.0 | 1.0 | 0.00 | 0.00 | 0.00 | 98 | 1000.5 |
| 20260505113721 | 70 | 219 | 0.0 | 1.0 | 0.00 | 0.00 | 0.00 | 99 | 1000.3 |
| 20260505113623 | 70 | 219 | 0.0 | 1.0 | 0.00 | 0.00 | 0.00 | 99 | 1000.4 |
| 20260505113522 | 70 | 219 | 0.0 | 1.0 | 0.00 | 0.00 | 0.00 | 99 | 1000.3 |
| 20260505113422 | 70 | 219 | 0.0 | 1.0 | 0.00 | 0.00 | 0.00 | 98 | 1000.3 |
| 20260505113322 | 70 | 245 | 0.0 | 1.0 | 0.00 | 0.00 | 0.00 | 98 | 1000.2 |
| 20260505113222 | 70 | 245 | 0.0 | 1.0 | 0.00 | 0.00 | 0.00 | 98 | 1000.1 |
| 20260505113121 | 70 | 244 | 0.0 | 1.0 | 0.00 | 0.00 | 0.00 | 98 | 1000.2 |
| 20260505113022 | 70 | 258 | 0.0 | 1.0 | 0.00 | 0.00 | 0.00 | 99 | 1000.2 |
| 20260505112922 | 70 | 258 | 0.0 | 1.0 | 0.00 | 0.00 | 0.00 | 99 | 1000.3 |
| 20260505112821 | 70 | 258 | 0.0 | 1.0 | 0.00 | 0.00 | 0.00 | 99 | 1000.3 |
| 20260505112724 | 70 | 258 | 0.0 | 1.0 | 0.00 | 0.00 | 0.00 | 99 | 1000.3 |
| 20260505112623 | 70 | 259 | 0.0 | 1.0 | 0.00 | 0.00 | 0.00 | 98 | 1000.3 |
| 20260505112521 | 70 | 265 | 0.0 | 1.0 | 0.00 | 0.00 | 0.00 | 98 | 1000.3 |
| 20260505112422 | 70 | 87 | 0.0 | 0.0 | 0.00 | 0.00 | 0.00 | 99 | 1000.4 |
| 20260505112322 | 70 | 87 | 0.0 | 0.0 | 0.00 | 0.00 | 0.00 | 99 | 1000.5 |
| 20260505112221 | 70 | 148 | 0.0 | 0.0 | 0.00 | 0.00 | 0.00 | 99 | 1000.5 |
| 20260505112123 | 70 | 148 | 0.0 | 0.0 | 0.00 | 0.00 | 0.00 | 99 | 1000.6 |
| 20260505112023 | 70 | 255 | 0.0 | 0.0 | 0.00 | 0.00 | 0.00 | 99 | 1000.6 |
| 20260505111921 | 70 | 255 | 0.0 | 0.0 | 0.00 | 0.00 | 0.00 | 98 | 1000.6 |
| 20260505111822 | 70 | 255 | 0.0 | 0.0 | 0.00 | 0.00 | 0.00 | 98 | 1000.6 |
| 20260505111723 | 70 | 255 | 0.0 | 0.0 | 0.00 | 0.00 | 0.00 | 98 | 1000.6 |
| 20260505111621 | 70 | 255 | 0.0 | 0.0 | 0.00 | 0.00 | 0.00 | 99 | 1000.6 |
| 20260505111523 | 70 | 255 | 0.0 | 0.0 | 0.00 | 0.00 | 0.00 | 98 | 1000.6 |
| 20260505111421 | 70 | 255 | 0.0 | 0.0 | 0.00 | 0.00 | 0.00 | 98 | 1000.5 |
| 20260505111321 | 70 | 255 | 0.0 | 0.0 | 0.00 | 0.00 | 0.00 | 98 | 1000.5 |
| 20260505111222 | 70 | 212 | 0.0 | 0.0 | 0.00 | 0.00 | 0.00 | 98 | 1000.6 |
| 20260505111122 | 70 | 212 | 0.0 | 0.0 | 0.00 | 0.00 | 0.00 | 98 | 1000.5 |
| 20260505111020 | 70 | 212 | 0.0 | 0.0 | 0.00 | 0.00 | 0.00 | 98 | 1000.5 |
| 20260505110921 | 70 | 212 | 0.0 | 0.0 | 0.00 | 0.00 | 0.00 | 98 | 1000.6 |
| 20260505110822 | 70 | 213 | 0.0 | 0.0 | 0.00 | 0.00 | 0.00 | 98 | 1000.6 |
| 20260505110722 | 70 | 213 | 0.0 | 0.0 | 0.00 | 0.00 | 0.00 | 98 | 1000.6 |
| 20260505110621 | 70 | 213 | 0.0 | 0.0 | 0.00 | 0.00 | 0.00 | 98 | 1000.5 |
| 20260505110521 | 70 | 213 | 0.0 | 0.0 | 0.00 | 0.00 | 0.00 | 98 | 1000.5 |
| 20260505110421 | 70 | 213 | 0.0 | 0.0 | 0.00 | 0.00 | 0.00 | 98 | 1000.4 |
| 20260505110325 | 70 | 213 | 0.0 | 0.0 | 0.00 | 0.00 | 0.00 | 98 | 1000.5 |
| 20260505110222 | 70 | 213 | 0.0 | 0.0 | 0.00 | 0.00 | 0.00 | 98 | 1000.4 |
| 20260505110121 | 70 | 213 | 0.0 | 0.0 | 0.00 | 0.00 | 0.00 | 98 | 1000.4 |
| 20260505102221 | 69 | 214 | 0.0 | 2.0 | 0.00 | 0.00 | 0.00 | 98 | 1000.5 |
| 20260505102121 | 69 | 213 | 0.0 | 2.0 | 0.00 | 0.00 | 0.00 | 98 | 1000.5 |
| 20260505102020 | 69 | 172 | 0.0 | 2.0 | 0.00 | 0.00 | 0.00 | 98 | 1000.6 |
| 20260505101920 | 69 | 172 | 0.0 | 2.0 | 0.00 | 0.00 | 0.00 | 98 | 1000.6 |
| 20260505101821 | 69 | 172 | 0.0 | 2.0 | 0.00 | 0.00 | 0.00 | 98 | 1000.6 |
| 20260505101719 | 69 | 171 | 0.0 | 2.0 | 0.00 | 0.00 | 0.00 | 98 | 1000.6 |
| 20260505101619 | 69 | 179 | 0.0 | 2.0 | 0.00 | 0.00 | 0.00 | 98 | 1000.6 |
| 20260505101521 | 69 | 173 | 0.0 | 1.0 | 0.00 | 0.00 | 0.00 | 98 | 1000.6 |
| 20260505101422 | 69 | 173 | 0.0 | 1.0 | 0.00 | 0.00 | 0.00 | 98 | 1000.6 |
| 20260505101320 | 69 | 149 | 0.0 | 1.0 | 0.00 | 0.00 | 0.00 | 98 | 1000.7 |
| 20260505101222 | 69 | 149 | 0.0 | 1.0 | 0.00 | 0.00 | 0.00 | 98 | 1000.5 |
| 20260505101121 | 69 | 149 | 0.0 | 1.0 | 0.00 | 0.00 | 0.00 | 98 | 1000.6 |
| 20260505101019 | 69 | 149 | 0.0 | 1.0 | 0.00 | 0.00 | 0.00 | 98 | 1000.6 |
| 20260505100904 | 69 | 148 | 0.0 | 1.0 | 0.00 | 0.00 | 0.00 | 98 | 1000.6 |
| 20260505100802 | 69 | 151 | 0.0 | 1.0 | 0.00 | 0.00 | 0.00 | 98 | 1000.5 |
| 20260505100703 | 69 | 151 | 0.0 | 1.0 | 0.00 | 0.00 | 0.00 | 98 | 1000.4 |
| 20260505100603 | 69 | 244 | 0.0 | 1.0 | 0.00 | 0.00 | 0.00 | 97 | 1000.4 |
| 20260505100505 | 69 | 224 | 0.0 | 1.0 | 0.00 | 0.00 | 0.00 | 97 | 1000.5 |
| 20260505100403 | 69 | 224 | 0.0 | 1.0 | 0.00 | 0.00 | 0.00 | 97 | 1000.5 |
| 20260505100302 | 69 | 228 | 0.0 | 1.0 | 0.00 | 0.00 | 0.00 | 97 | 1000.5 |
| 20260505100204 | 69 | 216 | 0.0 | 1.0 | 0.00 | 0.00 | 0.00 | 97 | 1000.4 |
| 20260505100110 | 69 | 213 | 0.0 | 1.0 | 0.00 | 0.00 | 0.00 | 97 | 1000.4 |
| 20260505100002 | 69 | 202 | 0.0 | 1.0 | 0.00 | 0.00 | 0.00 | 97 | 1000.4 |
| 20260505095902 | 69 | 202 | 0.0 | 1.0 | 0.00 | 0.00 | 0.00 | 97 | 1000.3 |
| 20260505095803 | 69 | 202 | 0.0 | 1.0 | 0.00 | 0.00 | 0.00 | 97 | 1000.4 |
| 20260505095702 | 69 | 202 | 0.0 | 1.0 | 0.00 | 0.00 | 0.00 | 97 | 1000.4 |
| 20260505095602 | 69 | 202 | 0.0 | 1.0 | 0.00 | 0.00 | 0.00 | 97 | 1000.4 |
| 20260505095504 | 69 | 207 | 0.0 | 1.0 | 0.00 | 0.00 | 0.00 | 97 | 1000.5 |
| 20260505095404 | 69 | 207 | 0.0 | 1.0 | 0.00 | 0.00 | 0.00 | 97 | 1000.5 |
| 20260505095257 | 69 | 206 | 0.0 | 1.0 | 0.00 | 0.00 | 0.00 | 97 | 1000.4 |
| 20260505095157 | 69 | 206 | 0.0 | 1.0 | 0.00 | 0.00 | 0.00 | 97 | 1000.4 |
| 20260505095050 | 69 | 207 | 0.0 | 0.0 | 0.00 | 0.00 | 0.00 | 97 | 1000.5 |
| 20260505094945 | 69 | 207 | 0.0 | 0.0 | 0.00 | 0.00 | 0.00 | 97 | 1000.5 |
| 20260505094841 | 69 | 207 | 0.0 | 0.0 | 0.00 | 0.00 | 0.00 | 97 | 1000.5 |
| 20260505094737 | 69 | 207 | 0.0 | 2.0 | 0.00 | 0.00 | 0.00 | 97 | 1000.6 |
| 20260505094632 | 69 | 207 | 0.0 | 2.0 | 0.00 | 0.00 | 0.00 | 97 | 1000.6 |
| 20260505094532 | 69 | 207 | 0.0 | 2.0 | 0.00 | 0.00 | 0.00 | 97 | 1000.6 |
| 20260505094431 | 69 | 207 | 0.0 | 2.0 | 0.00 | 0.00 | 0.00 | 97 | 1000.6 |
| 20260505094332 | 69 | 207 | 0.0 | 2.0 | 0.00 | 0.00 | 0.00 | 97 | 1000.7 |
| 20260505094232 | 69 | 207 | 0.0 | 2.0 | 0.00 | 0.00 | 0.00 | 97 | 1000.6 |
| 20260505094131 | 69 | 207 | 0.0 | 2.0 | 0.00 | 0.00 | 0.00 | 97 | 1000.6 |
| 20260505094033 | 69 | 230 | 0.0 | 2.0 | 0.00 | 0.00 | 0.00 | 97 | 1000.6 |
| 20260505093927 | 69 | 230 | 0.0 | 2.0 | 0.00 | 0.00 | 0.00 | 97 | 1000.6 |
| 20260505093824 | 69 | 230 | 0.0 | 2.0 | 0.00 | 0.00 | 0.00 | 97 | 1000.6 |
| 20260505093719 | 69 | 202 | 0.0 | 0.0 | 0.00 | 0.00 | 0.00 | 97 | 1000.6 |
| 20260505093619 | 69 | 202 | 0.0 | 0.0 | 0.00 | 0.00 | 0.00 | 97 | 1000.6 |
| 20260505093519 | 69 | 202 | 0.0 | 0.0 | 0.00 | 0.00 | 0.00 | 97 | 1000.6 |
| 20260505093418 | 69 | 265 | 0.0 | 0.0 | 0.00 | 0.00 | 0.00 | 97 | 1000.6 |
| 20260505093318 | 69 | 265 | 0.0 | 0.0 | 0.00 | 0.00 | 0.00 | 97 | 1000.6 |
| 20260505093221 | 69 | 190 | 0.0 | 0.0 | 0.00 | 0.00 | 0.00 | 97 | 1000.5 |
| 20260505093113 | 69 | 190 | 0.0 | 0.0 | 0.00 | 0.00 | 0.00 | 97 | 1000.6 |